Observation data for Wall on 11/09/2019      Previous  Date       Current Mesonet Observations  Soil Data  Daily Summary Page  Observations in Plain Language
KWA1 090600Z 23004KT 06/05 A3034 RMK A01 T00600054  RH  096%=      5-min Rain = 0
KWA1 090601Z 23005KT 06/05 A3034 RMK A01 T00600054  RH  096%=      5-min Rain = 0
KWA1 090602Z 23005KT 06/05 A3034 RMK A01 T00600054  RH  096%=      5-min Rain = 0
KWA1 090603Z 23004KT 06/05 A3034 RMK A01 T00600054  RH  096%=      5-min Rain = 0
KWA1 090604Z 23004KT 06/05 A3034 RMK A01 T00600054  RH  096%=      5-min Rain = 0
KWA1 090605Z 23004KT 06/05 A3034 RMK A01 T00590054  RH  096%=      5-min Rain = 0
KWA1 090606Z 23004KT 06/05 A3034 RMK A01 T00590054  RH  096%=      5-min Rain = 0
KWA1 090607Z 23004KT 06/05 A3034 RMK A01 T00600054  RH  096%=      5-min Rain = 0
KWA1 090608Z 23004KT 06/05 A3034 RMK A01 T00600054  RH  096%=      5-min Rain = 0
KWA1 090609Z 23004KT 06/05 A3034 RMK A01 T00590053  RH  096%=      5-min Rain = 0
KWA1 090610Z 23004KT 06/05 A3034 RMK A01 T00590053  RH  096%=      5-min Rain = 0
KWA1 090611Z 23004KT 06/05 A3034 RMK A01 T00590053  RH  096%=      5-min Rain = 0
KWA1 090612Z 23004KT 06/05 A3034 RMK A01 T00590053  RH  096%=      5-min Rain = 0
KWA1 090613Z 23004KT 06/05 A3034 RMK A01 T00590054  RH  096%=      5-min Rain = 0
KWA1 090614Z 23004KT 06/05 A3034 RMK A01 T00590053  RH  096%=      5-min Rain = 0
KWA1 090615Z 24004KT 06/05 A3034 RMK A01 T00590054  RH  096%=      5-min Rain = 0
KWA1 090616Z 24003KT 06/05 A3034 RMK A01 T00590053  RH  096%=      5-min Rain = 0
KWA1 090617Z 24003KT 06/05 A3034 RMK A01 T00590053  RH  096%=      5-min Rain = 0
KWA1 090618Z 24003KT 06/05 A3034 RMK A01 T00590054  RH  096%=      5-min Rain = 0
KWA1 090619Z 24003KT 06/05 A3034 RMK A01 T00590053  RH  096%=      5-min Rain = 0
KWA1 090620Z 23003KT 06/05 A3034 RMK A01 T00590053  RH  096%=      5-min Rain = 0
KWA1 090621Z 23003KT 06/05 A3033 RMK A01 T00590053  RH  096%=      5-min Rain = 0
KWA1 090622Z 23003KT 06/05 A3033 RMK A01 T00590053  RH  096%=      5-min Rain = 0
KWA1 090623Z 23003KT 06/05 A3034 RMK A01 T00580053  RH  096%=      5-min Rain = 0
KWA1 090624Z 23003KT 06/05 A3034 RMK A01 T00580053  RH  096%=      5-min Rain = 0
KWA1 090625Z 23003KT 06/05 A3034 RMK A01 T00580053  RH  096%=      5-min Rain = 0
KWA1 090626Z 23003KT 06/05 A3034 RMK A01 T00580053  RH  096%=      5-min Rain = 0
KWA1 090627Z 23003KT 06/05 A3034 RMK A01 T00580053  RH  096%=      5-min Rain = 0
KWA1 090628Z 24003KT 06/05 A3034 RMK A01 T00580053  RH  096%=      5-min Rain = 0
KWA1 090629Z 24003KT 06/05 A3034 RMK A01 T00580053  RH  096%=      5-min Rain = 0
KWA1 090630Z 24003KT 06/05 A3034 RMK A01 T00580053  RH  096%=      5-min Rain = 0
KWA1 090631Z 24004KT 06/05 A3034 RMK A01 T00580052  RH  096%=      5-min Rain = 0
KWA1 090632Z 24004KT 06/05 A3034 RMK A01 T00580053  RH  096%=      5-min Rain = 0
KWA1 090633Z 24004KT 06/05 A3034 RMK A01 T00580053  RH  096%=      5-min Rain = 0
KWA1 090634Z 24004KT 06/05 A3034 RMK A01 T00580053  RH  096%=      5-min Rain = 0
KWA1 090635Z 24004KT 06/05 A3033 RMK A01 T00580052  RH  096%=      5-min Rain = 0
KWA1 090636Z 24004KT 06/05 A3033 RMK A01 T00580052  RH  096%=      5-min Rain = 0
KWA1 090637Z 23004KT 06/05 A3033 RMK A01 T00580052  RH  096%=      5-min Rain = 0
KWA1 090638Z 23004KT 06/05 A3033 RMK A01 T00580052  RH  096%=      5-min Rain = 0
KWA1 090639Z 23004KT 06/05 A3033 RMK A01 T00570052  RH  096%=      5-min Rain = 0
KWA1 090640Z 23004KT 06/05 A3033 RMK A01 T00570052  RH  096%=      5-min Rain = 0
KWA1 090641Z 23004KT 06/05 A3033 RMK A01 T00570052  RH  096%=      5-min Rain = 0
KWA1 090642Z 23004KT 06/05 A3033 RMK A01 T00570052  RH  096%=      5-min Rain = 0
KWA1 090643Z 23004KT 06/05 A3033 RMK A01 T00570051  RH  096%=      5-min Rain = 0
KWA1 090644Z 23004KT 06/05 A3033 RMK A01 T00570051  RH  096%=      5-min Rain = 0
KWA1 090645Z 23004KT 06/05 A3033 RMK A01 T00560051  RH  096%=      5-min Rain = 0
KWA1 090646Z 23004KT 06/05 A3033 RMK A01 T00560051  RH  096%=      5-min Rain = 0
KWA1 090647Z 23003KT 06/05 A3033 RMK A01 T00560051  RH  096%=      5-min Rain = 0
KWA1 090648Z 23004KT 06/05 A3033 RMK A01 T00560051  RH  096%=      5-min Rain = 0
KWA1 090649Z 23004KT 06/05 A3033 RMK A01 T00560050  RH  096%=      5-min Rain = 0
KWA1 090650Z 23004KT 06/05 A3033 RMK A01 T00560050  RH  096%=      5-min Rain = 0
KWA1 090651Z 23005KT 06/05 A3033 RMK A01 T00550050  RH  096%=      5-min Rain = 0
KWA1 090652Z 23004KT 06/05 A3033 RMK A01 T00550050  RH  096%=      5-min Rain = 0
KWA1 090653Z 22004KT 06/05 A3033 RMK A01 T00550050  RH  097%=      5-min Rain = 0
KWA1 090654Z 23005KT 05/05 A3033 RMK A01 T00540049  RH  096%=      5-min Rain = 0
KWA1 090655Z 22005KT 05/05 A3033 RMK A01 T00540049  RH  097%=      5-min Rain = 0
KWA1 090656Z 23005KT 05/05 A3033 RMK A01 T00540049  RH  097%=      5-min Rain = 0
KWA1 090657Z 23005KT 05/05 A3033 RMK A01 T00540050  RH  097%=      5-min Rain = 0
KWA1 090658Z 23005KT 06/05 A3033 RMK A01 T00550051  RH  097%=      5-min Rain = 0
KWA1 090659Z 23005KT 06/05 A3033 RMK A01 T00560052  RH  097%=      5-min Rain = 0
KWA1 090700Z 23005KT 06/05 A3033 RMK A01 T00570052  RH  097%=      5-min Rain = 0
KWA1 090701Z 23005KT 06/05 A3033 RMK A01 T00570053  RH  097%=      5-min Rain = 0
KWA1 090702Z 23005KT 06/05 A3033 RMK A01 T00570053  RH  097%=      5-min Rain = 0
KWA1 090703Z 24005KT 06/05 A3033 RMK A01 T00570053  RH  097%=      5-min Rain = 0
KWA1 090704Z 23005KT 06/05 A3033 RMK A01 T00570053  RH  097%=      5-min Rain = 0
KWA1 090705Z 23005KT 06/05 A3033 RMK A01 T00570052  RH  097%=      5-min Rain = 0
KWA1 090706Z 23005KT 06/05 A3033 RMK A01 T00570052  RH  097%=      5-min Rain = 0
KWA1 090707Z 23005KT 06/05 A3033 RMK A01 T00570052  RH  097%=      5-min Rain = 0
KWA1 090708Z 23005KT 06/05 A3033 RMK A01 T00570052  RH  097%=      5-min Rain = 0
KWA1 090709Z 23005KT 06/05 A3033 RMK A01 T00570052  RH  097%=      5-min Rain = 0
KWA1 090710Z 23005KT 06/05 A3033 RMK A01 T00570052  RH  097%=      5-min Rain = 0
KWA1 090711Z 23005KT 06/05 A3033 RMK A01 T00570052  RH  097%=      5-min Rain = 0
KWA1 090712Z 24005KT 06/05 A3033 RMK A01 T00570052  RH  097%=      5-min Rain = 0
KWA1 090713Z 24005KT 06/05 A3033 RMK A01 T00580052  RH  097%=      5-min Rain = 0
KWA1 090714Z 24005KT 06/05 A3033 RMK A01 T00580053  RH  097%=      5-min Rain = 0
KWA1 090715Z 23005KT 06/05 A3033 RMK A01 T00580053  RH  096%=      5-min Rain = 0
KWA1 090718Z 23005KT 06/05 A3033 RMK A01 T00590054  RH  096%=      5-min Rain = 0
KWA1 090719Z 23005KT 06/05 A3033 RMK A01 T00600054  RH  096%=      5-min Rain = 0
KWA1 090720Z 23005KT 06/05 A3033 RMK A01 T00600054  RH  096%=      5-min Rain = 0
KWA1 090721Z 23005KT 06/05 A3033 RMK A01 T00590053  RH  096%=      5-min Rain = 0
KWA1 090722Z 24005KT 06/05 A3033 RMK A01 T00600053  RH  096%=      5-min Rain = 0
KWA1 090723Z 24005KT 06/05 A3033 RMK A01 T00590053  RH  096%=      5-min Rain = 0
KWA1 090724Z 24005KT 06/05 A3033 RMK A01 T00600053  RH  096%=      5-min Rain = 0
KWA1 090725Z 24005KT 06/05 A3033 RMK A01 T00590053  RH  096%=      5-min Rain = 0
KWA1 090726Z 24004KT 06/05 A3033 RMK A01 T00600053  RH  096%=      5-min Rain = 0
KWA1 090727Z 24004KT 06/05 A3033 RMK A01 T00590053  RH  096%=      5-min Rain = 0
KWA1 090728Z 25004KT 06/05 A3033 RMK A01 T00600053  RH  096%=      5-min Rain = 0
KWA1 090729Z 25004KT 06/05 A3033 RMK A01 T00590052  RH  095%=      5-min Rain = 0
KWA1 090730Z 25004KT 06/05 A3033 RMK A01 T00590052  RH  095%=      5-min Rain = 0
KWA1 090731Z 25004KT 06/05 A3033 RMK A01 T00580051  RH  095%=      5-min Rain = 0
KWA1 090732Z 25005KT 06/05 A3033 RMK A01 T00580051  RH  096%=      5-min Rain = 0
KWA1 090733Z 25005KT 06/05 A3033 RMK A01 T00570050  RH  096%=      5-min Rain = 0
KWA1 090734Z 25004KT 06/05 A3033 RMK A01 T00570050  RH  096%=      5-min Rain = 0
KWA1 090735Z 25004KT 06/05 A3033 RMK A01 T00560050  RH  096%=      5-min Rain = 0
KWA1 090736Z 25004KT 06/05 A3033 RMK A01 T00560050  RH  096%=      5-min Rain = 0
KWA1 090737Z 25004KT 06/05 A3033 RMK A01 T00560049  RH  096%=      5-min Rain = 0
KWA1 090738Z 24005KT 06/05 A3033 RMK A01 T00550049  RH  096%=      5-min Rain = 0
KWA1 090739Z 24005KT 06/05 A3033 RMK A01 T00550049  RH  096%=      5-min Rain = 0
KWA1 090740Z 24005KT 05/05 A3033 RMK A01 T00540048  RH  096%=      5-min Rain = 0
KWA1 090741Z 24006KT 05/05 A3033 RMK A01 T00540049  RH  096%=      5-min Rain = 0
KWA1 090742Z 24005KT 05/05 A3033 RMK A01 T00540049  RH  096%=      5-min Rain = 0
KWA1 090743Z 23005KT 05/05 A3032 RMK A01 T00540049  RH  097%=      5-min Rain = 0
KWA1 090744Z 23005KT 05/05 A3032 RMK A01 T00540049  RH  097%=      5-min Rain = 0
KWA1 090745Z 23005KT 05/05 A3032 RMK A01 T00540049  RH  097%=      5-min Rain = 0
KWA1 090746Z 23005KT 05/05 A3032 RMK A01 T00540049  RH  097%=      5-min Rain = 0
KWA1 090747Z 23004KT 05/05 A3032 RMK A01 T00540049  RH  097%=      5-min Rain = 0
KWA1 090748Z 23004KT 05/05 A3032 RMK A01 T00540049  RH  097%=      5-min Rain = 0
KWA1 090749Z 23004KT 05/05 A3032 RMK A01 T00540049  RH  097%=      5-min Rain = 0
KWA1 090750Z 23005KT 05/05 A3032 RMK A01 T00540049  RH  097%=      5-min Rain = 0
KWA1 090751Z 24005KT 05/05 A3032 RMK A01 T00540049  RH  097%=      5-min Rain = 0
KWA1 090752Z 24005KT 05/05 A3032 RMK A01 T00530049  RH  097%=      5-min Rain = 0
KWA1 090753Z 24005KT 05/05 A3032 RMK A01 T00530048  RH  097%=      5-min Rain = 0
KWA1 090754Z 24004KT 05/05 A3032 RMK A01 T00530049  RH  097%=      5-min Rain = 0
KWA1 090755Z 24005KT 05/05 A3032 RMK A01 T00530048  RH  097%=      5-min Rain = 0
KWA1 090756Z 24005KT 05/05 A3032 RMK A01 T00530048  RH  097%=      5-min Rain = 0
KWA1 090757Z 24005KT 05/05 A3032 RMK A01 T00520048  RH  097%=      5-min Rain = 0
KWA1 090758Z 24005KT 05/05 A3032 RMK A01 T00520048  RH  097%=      5-min Rain = 0
KWA1 090759Z 24005KT 05/05 A3032 RMK A01 T00520048  RH  097%=      5-min Rain = 0
KWA1 090800Z 24005KT 05/05 A3032 RMK A01 T00520047  RH  097%=      5-min Rain = 0
KWA1 090801Z 24005KT 05/05 A3032 RMK A01 T00520047  RH  097%=      5-min Rain = 0
KWA1 090802Z 24005KT 05/05 A3032 RMK A01 T00520048  RH  097%=      5-min Rain = 0
KWA1 090803Z 24005KT 05/05 A3032 RMK A01 T00510047  RH  097%=      5-min Rain = 0
KWA1 090804Z 24005KT 05/05 A3032 RMK A01 T00520047  RH  097%=      5-min Rain = 0
KWA1 090805Z 24005KT 05/05 A3032 RMK A01 T00510047  RH  097%=      5-min Rain = 0
KWA1 090806Z 24005KT 05/05 A3032 RMK A01 T00510047  RH  097%=      5-min Rain = 0
KWA1 090807Z 24005KT 05/05 A3031 RMK A01 T00510047  RH  097%=      5-min Rain = 0
KWA1 090808Z 24005KT 05/05 A3031 RMK A01 T00510047  RH  097%=      5-min Rain = 0
KWA1 090809Z 24005KT 05/05 A3031 RMK A01 T00510047  RH  097%=      5-min Rain = 0
KWA1 090810Z 24004KT 05/05 A3031 RMK A01 T00510047  RH  097%=      5-min Rain = 0
KWA1 090811Z 24004KT 05/05 A3031 RMK A01 T00510047  RH  097%=      5-min Rain = 0
KWA1 090812Z 23004KT 05/05 A3031 RMK A01 T00510047  RH  097%=      5-min Rain = 0
KWA1 090813Z 24005KT 05/05 A3031 RMK A01 T00510047  RH  097%=      5-min Rain = 0
KWA1 090814Z 24005KT 05/05 A3031 RMK A01 T00510047  RH  097%=      5-min Rain = 0
KWA1 090815Z 24004KT 05/05 A3031 RMK A01 T00510047  RH  097%=      5-min Rain = 0
KWA1 090816Z 24005KT 05/05 A3031 RMK A01 T00500046  RH  097%=      5-min Rain = 0
KWA1 090817Z 24004KT 05/05 A3031 RMK A01 T00500046  RH  097%=      5-min Rain = 0
KWA1 090818Z 24004KT 05/05 A3031 RMK A01 T00500046  RH  097%=      5-min Rain = 0
KWA1 090819Z 24004KT 05/05 A3031 RMK A01 T00490045  RH  097%=      5-min Rain = 0
KWA1 090820Z 23004KT 05/05 A3031 RMK A01 T00490045  RH  097%=      5-min Rain = 0
KWA1 090821Z 24004KT 05/05 A3031 RMK A01 T00490045  RH  097%=      5-min Rain = 0
KWA1 090822Z 24004KT 05/05 A3031 RMK A01 T00490045  RH  097%=      5-min Rain = 0
KWA1 090823Z 23004KT 05/04 A3031 RMK A01 T00480044  RH  097%=      5-min Rain = 0
KWA1 090824Z 23004KT 05/04 A3031 RMK A01 T00480044  RH  097%=      5-min Rain = 0
KWA1 090825Z 23004KT 05/05 A3031 RMK A01 T00480045  RH  097%=      5-min Rain = 0
KWA1 090826Z 23004KT 05/04 A3031 RMK A01 T00480044  RH  097%=      5-min Rain = 0
KWA1 090827Z 24004KT 05/04 A3031 RMK A01 T00480044  RH  097%=      5-min Rain = 0
KWA1 090828Z 23004KT 05/04 A3031 RMK A01 T00480044  RH  097%=      5-min Rain = 0
KWA1 090829Z 23004KT 05/04 A3031 RMK A01 T00480044  RH  097%=      5-min Rain = 0
KWA1 090830Z 23004KT 05/04 A3031 RMK A01 T00470044  RH  098%=      5-min Rain = 0
KWA1 090831Z 23004KT 05/04 A3031 RMK A01 T00480044  RH  098%=      5-min Rain = 0
KWA1 090832Z 22004KT 05/04 A3031 RMK A01 T00480044  RH  098%=      5-min Rain = 0
KWA1 090833Z 23004KT 05/05 A3031 RMK A01 T00480045  RH  098%=      5-min Rain = 0
KWA1 090834Z 23004KT 05/05 A3031 RMK A01 T00480045  RH  098%=      5-min Rain = 0
KWA1 090835Z 23004KT 05/04 A3031 RMK A01 T00480044  RH  098%=      5-min Rain = 0
KWA1 090836Z 22004KT 05/04 A3031 RMK A01 T00470043  RH  097%=      5-min Rain = 0
KWA1 090837Z 22004KT 05/04 A3031 RMK A01 T00470043  RH  097%=      5-min Rain = 0
KWA1 090838Z 22004KT 05/04 A3031 RMK A01 T00460042  RH  097%=      5-min Rain = 0
KWA1 090839Z 22004KT 05/04 A3031 RMK A01 T00460042  RH  097%=      5-min Rain = 0
KWA1 090840Z 22004KT 05/04 A3031 RMK A01 T00460042  RH  097%=      5-min Rain = 0
KWA1 090841Z 23004KT 05/04 A3031 RMK A01 T00460042  RH  097%=      5-min Rain = 0
KWA1 090842Z 23003KT 05/04 A3031 RMK A01 T00450042  RH  097%=      5-min Rain = 0
KWA1 090843Z 22003KT 05/04 A303 RMK A01 T00450041  RH  097%=      5-min Rain = 0
KWA1 090844Z 22003KT 05/04 A303 RMK A01 T00450041  RH  098%=      5-min Rain = 0
KWA1 090845Z 22003KT 05/04 A303 RMK A01 T00450042  RH  098%=      5-min Rain = 0
KWA1 090846Z 22003KT 05/04 A303 RMK A01 T00450042  RH  098%=      5-min Rain = 0
KWA1 090847Z 22003KT 05/04 A303 RMK A01 T00450042  RH  098%=      5-min Rain = 0
KWA1 090848Z 22003KT 05/04 A303 RMK A01 T00450042  RH  098%=      5-min Rain = 0
KWA1 090849Z 22003KT 05/04 A303 RMK A01 T00450042  RH  098%=      5-min Rain = 0
KWA1 090850Z 23003KT 05/04 A303 RMK A01 T00450042  RH  098%=      5-min Rain = 0
KWA1 090851Z 23002KT 05/04 A303 RMK A01 T00450042  RH  098%=      5-min Rain = 0
KWA1 090852Z 24002KT 05/04 A303 RMK A01 T00450041  RH  098%=      5-min Rain = 0
KWA1 090853Z 24003KT 04/04 A303 RMK A01 T00440040  RH  098%=      5-min Rain = 0
KWA1 090854Z 24003KT 04/04 A303 RMK A01 T00430040  RH  098%=      5-min Rain = 0
KWA1 090855Z 24003KT 04/04 A303 RMK A01 T00430039  RH  097%=      5-min Rain = 0
KWA1 090856Z 25003KT 04/04 A303 RMK A01 T00420038  RH  098%=      5-min Rain = 0
KWA1 090857Z 25003KT 04/04 A303 RMK A01 T00410038  RH  098%=      5-min Rain = 0
KWA1 090858Z 25003KT 04/04 A303 RMK A01 T00410037  RH  097%=      5-min Rain = 0
KWA1 090859Z 25002KT 04/04 A303 RMK A01 T00400036  RH  097%=      5-min Rain = 0
KWA1 090900Z 25002KT 04/04 A303 RMK A01 T00390036  RH  097%=      5-min Rain = 0
KWA1 090901Z 26002KT 04/04 A303 RMK A01 T00390035  RH  098%=      5-min Rain = 0
KWA1 090902Z 28002KT 04/04 A303 RMK A01 T00390035  RH  098%=      5-min Rain = 0
KWA1 090903Z 27002KT 04/04 A303 RMK A01 T00390036  RH  098%=      5-min Rain = 0
KWA1 090904Z 26003KT 04/04 A303 RMK A01 T00390035  RH  098%=      5-min Rain = 0
KWA1 090905Z 26003KT 04/04 A303 RMK A01 T00390035  RH  098%=      5-min Rain = 0
KWA1 090906Z 25003KT 04/04 A303 RMK A01 T00390035  RH  098%=      5-min Rain = 0
KWA1 090907Z 25003KT 04/04 A303 RMK A01 T00390036  RH  098%=      5-min Rain = 0
KWA1 090908Z 25003KT 04/04 A303 RMK A01 T00390036  RH  098%=      5-min Rain = 0
KWA1 090909Z 25003KT 04/04 A303 RMK A01 T00390036  RH  098%=      5-min Rain = 0
KWA1 090910Z 25003KT 04/04 A303 RMK A01 T00390036  RH  098%=      5-min Rain = 0
KWA1 090911Z 25003KT 04/04 A3029 RMK A01 T00390036  RH  098%=      5-min Rain = 0
KWA1 090912Z 25003KT 04/04 A3029 RMK A01 T00380035  RH  098%=      5-min Rain = 0
KWA1 090913Z 25002KT 04/03 A3029 RMK A01 T00380034  RH  098%=      5-min Rain = 0
KWA1 090914Z 25002KT 04/03 A3029 RMK A01 T00370034  RH  098%=      5-min Rain = 0
KWA1 090915Z 25002KT 04/03 A3029 RMK A01 T00370034  RH  098%=      5-min Rain = 0
KWA1 090916Z 25002KT 04/03 A3029 RMK A01 T00370034  RH  098%=      5-min Rain = 0
KWA1 090917Z 26002KT 04/03 A3029 RMK A01 T00370034  RH  098%=      5-min Rain = 0
KWA1 090918Z 26002KT 04/03 A3029 RMK A01 T00370034  RH  098%=      5-min Rain = 0
KWA1 090919Z 25002KT 04/03 A3029 RMK A01 T00370034  RH  098%=      5-min Rain = 0
KWA1 090920Z 25002KT 04/03 A3029 RMK A01 T00370034  RH  098%=      5-min Rain = 0
KWA1 090921Z 24002KT 04/03 A3029 RMK A01 T00370034  RH  098%=      5-min Rain = 0
KWA1 090922Z 24002KT 04/03 A3029 RMK A01 T00370034  RH  098%=      5-min Rain = 0
KWA1 090923Z 24002KT 04/03 A3029 RMK A01 T00370034  RH  098%=      5-min Rain = 0
KWA1 090924Z 24002KT 04/04 A3029 RMK A01 T00380035  RH  098%=      5-min Rain = 0
KWA1 090925Z 24003KT 04/04 A3029 RMK A01 T00390037  RH  099%=      5-min Rain = 0
KWA1 090926Z 23003KT 04/04 A3029 RMK A01 T00400038  RH  099%=      5-min Rain = 0
KWA1 090927Z 23003KT 04/04 A3029 RMK A01 T00400038  RH  099%=      5-min Rain = 0
KWA1 090928Z 22003KT 04/04 A3029 RMK A01 T00390037  RH  098%=      5-min Rain = 0
KWA1 090929Z 22003KT 04/04 A3029 RMK A01 T00380036  RH  098%=      5-min Rain = 0
KWA1 090930Z 23003KT 04/04 A3029 RMK A01 T00380036  RH  098%=      5-min Rain = 0
KWA1 090931Z 23003KT 04/04 A3029 RMK A01 T00380035  RH  098%=      5-min Rain = 0
KWA1 090932Z 23003KT 04/03 A3029 RMK A01 T00370034  RH  098%=      5-min Rain = 0
KWA1 090933Z 23003KT 04/03 A3029 RMK A01 T00360034  RH  098%=      5-min Rain = 0
KWA1 090934Z 23003KT 04/03 A3029 RMK A01 T00360034  RH  098%=      5-min Rain = 0
KWA1 090935Z 23003KT 04/03 A3029 RMK A01 T00360034  RH  099%=      5-min Rain = 0
KWA1 090936Z 23003KT 04/03 A3029 RMK A01 T00370034  RH  099%=      5-min Rain = 0
KWA1 090937Z 23003KT 04/04 A3029 RMK A01 T00370035  RH  099%=      5-min Rain = 0
KWA1 090938Z 23003KT 04/04 A3029 RMK A01 T00380036  RH  099%=      5-min Rain = 0
KWA1 090939Z 23003KT 04/04 A3029 RMK A01 T00390037  RH  099%=      5-min Rain = 0
KWA1 090940Z 23003KT 04/04 A3029 RMK A01 T00400038  RH  099%=      5-min Rain = 0
KWA1 090941Z 23003KT 04/04 A3029 RMK A01 T00410039  RH  099%=      5-min Rain = 0
KWA1 090942Z 23003KT 04/04 A3029 RMK A01 T00410039  RH  099%=      5-min Rain = 0
KWA1 090943Z 23003KT 04/04 A3029 RMK A01 T00410040  RH  099%=      5-min Rain = 0
KWA1 090944Z 23002KT 04/04 A3029 RMK A01 T00410040  RH  099%=      5-min Rain = 0
KWA1 090945Z 23002KT 04/04 A3029 RMK A01 T00410039  RH  099%=      5-min Rain = 0
KWA1 090946Z 23002KT 04/04 A3029 RMK A01 T00400038  RH  099%=      5-min Rain = 0
KWA1 090947Z 23002KT 04/04 A3029 RMK A01 T00400038  RH  099%=      5-min Rain = 0
KWA1 090948Z 23003KT 04/04 A3029 RMK A01 T00400038  RH  099%=      5-min Rain = 0
KWA1 090949Z 23003KT 04/04 A3029 RMK A01 T00400038  RH  099%=      5-min Rain = 0
KWA1 090950Z 23003KT 04/04 A3029 RMK A01 T00400038  RH  099%=      5-min Rain = 0
KWA1 090951Z 22003KT 04/04 A3029 RMK A01 T00390038  RH  099%=      5-min Rain = 0
KWA1 090952Z 22004KT 04/04 A3029 RMK A01 T00390037  RH  099%=      5-min Rain = 0
KWA1 090953Z 22004KT 04/04 A3029 RMK A01 T00380037  RH  099%=      5-min Rain = 0
KWA1 090954Z 22004KT 04/04 A3029 RMK A01 T00380036  RH  099%=      5-min Rain = 0
KWA1 090955Z 22004KT 04/04 A3028 RMK A01 T00380036  RH  099%=      5-min Rain = 0
KWA1 090956Z 22004KT 04/04 A3028 RMK A01 T00370036  RH  099%=      5-min Rain = 0
KWA1 090957Z 22004KT 04/04 A3028 RMK A01 T00370035  RH  099%=      5-min Rain = 0
KWA1 090958Z 22004KT 04/03 A3028 RMK A01 T00360034  RH  099%=      5-min Rain = 0
KWA1 090959Z 22005KT 04/03 A3028 RMK A01 T00350034  RH  099%=      5-min Rain = 0
KWA1 091000Z 22005KT 04/03 A3028 RMK A01 T00350033  RH  099%=      5-min Rain = 0
KWA1 091001Z 22005KT 04/03 A3028 RMK A01 T00350033  RH  099%=      5-min Rain = 0
KWA1 091002Z 22005KT 03/03 A3028 RMK A01 T00340032  RH  099%=      5-min Rain = 0
KWA1 091003Z 22005KT 03/03 A3028 RMK A01 T00340032  RH  099%=      5-min Rain = 0
KWA1 091004Z 22005KT 03/03 A3028 RMK A01 T00340032  RH  099%=      5-min Rain = 0
KWA1 091005Z 22005KT 03/03 A3028 RMK A01 T00330032  RH  099%=      5-min Rain = 0
KWA1 091006Z 21006KT 03/03 A3028 RMK A01 T00330032  RH  099%=      5-min Rain = 0
KWA1 091007Z 21006KT 03/03 A3028 RMK A01 T00340032  RH  099%=      5-min Rain = 0
KWA1 091008Z 21005KT 03/03 A3028 RMK A01 T00330032  RH  099%=      5-min Rain = 0
KWA1 091009Z 21005KT 03/03 A3028 RMK A01 T00340032  RH  099%=      5-min Rain = 0
KWA1 091010Z 21005KT 03/03 A3028 RMK A01 T00340033  RH  099%=      5-min Rain = 0
KWA1 091011Z 21005KT 04/03 A3028 RMK A01 T00350033  RH  099%=      5-min Rain = 0
KWA1 091012Z 21005KT 04/03 A3028 RMK A01 T00360034  RH  099%=      5-min Rain = 0
KWA1 091013Z 21005KT 04/04 A3028 RMK A01 T00360035  RH  099%=      5-min Rain = 0
KWA1 091014Z 21005KT 04/04 A3028 RMK A01 T00370036  RH  099%=      5-min Rain = 0
KWA1 091015Z 21005KT 04/04 A3028 RMK A01 T00380037  RH  099%=      5-min Rain = 0
KWA1 091016Z 21005KT 04/04 A3028 RMK A01 T00380037  RH  099%=      5-min Rain = 0
KWA1 091017Z 21005KT 04/04 A3028 RMK A01 T00380037  RH  099%=      5-min Rain = 0
KWA1 091018Z 21005KT 04/04 A3028 RMK A01 T00390037  RH  099%=      5-min Rain = 0
KWA1 091019Z 21005KT 04/04 A3028 RMK A01 T00390038  RH  099%=      5-min Rain = 0
KWA1 091020Z 21005KT 04/04 A3028 RMK A01 T00390038  RH  099%=      5-min Rain = 0
KWA1 091021Z 22005KT 04/04 A3028 RMK A01 T00390038  RH  099%=      5-min Rain = 0
KWA1 091022Z 22005KT 04/04 A3028 RMK A01 T00390037  RH  099%=      5-min Rain = 0
KWA1 091023Z 22005KT 04/04 A3028 RMK A01 T00380037  RH  099%=      5-min Rain = 0
KWA1 091024Z 22005KT 04/04 A3028 RMK A01 T00380037  RH  099%=      5-min Rain = 0
KWA1 091025Z 23005KT 04/04 A3028 RMK A01 T00380037  RH  099%=      5-min Rain = 0
KWA1 091026Z 23004KT 04/04 A3028 RMK A01 T00380036  RH  099%=      5-min Rain = 0
KWA1 091027Z 22004KT 04/04 A3028 RMK A01 T00380036  RH  099%=      5-min Rain = 0
KWA1 091028Z 22004KT 04/04 A3028 RMK A01 T00380036  RH  099%=      5-min Rain = 0
KWA1 091029Z 22004KT 04/04 A3028 RMK A01 T00370036  RH  099%=      5-min Rain = 0
KWA1 091030Z 22004KT 04/04 A3028 RMK A01 T00380036  RH  099%=      5-min Rain = 0
KWA1 091031Z 23003KT 04/04 A3028 RMK A01 T00370036  RH  099%=      5-min Rain = 0
KWA1 091032Z 23003KT 04/04 A3028 RMK A01 T00370035  RH  099%=      5-min Rain = 0
KWA1 091033Z 24002KT 04/04 A3028 RMK A01 T00370035  RH  099%=      5-min Rain = 0
KWA1 091034Z 25002KT 04/04 A3028 RMK A01 T00370035  RH  099%=      5-min Rain = 0
KWA1 091035Z 25002KT 04/04 A3028 RMK A01 T00360035  RH  099%=      5-min Rain = 0
KWA1 091036Z 25003KT 04/04 A3028 RMK A01 T00360035  RH  099%=      5-min Rain = 0
KWA1 091037Z 25003KT 04/04 A3028 RMK A01 T00360035  RH  099%=      5-min Rain = 0
KWA1 091038Z 24004KT 04/04 A3028 RMK A01 T00360035  RH  099%=      5-min Rain = 0
KWA1 091039Z 24004KT 04/04 A3028 RMK A01 T00360035  RH  099%=      5-min Rain = 0
KWA1 091040Z 24004KT 04/04 A3028 RMK A01 T00360035  RH  099%=      5-min Rain = 0
KWA1 091041Z 25004KT 04/04 A3028 RMK A01 T00360035  RH  099%=      5-min Rain = 0
KWA1 091042Z 25003KT 04/03 A3028 RMK A01 T00360034  RH  099%=      5-min Rain = 0
KWA1 091043Z 26004KT 04/03 A3028 RMK A01 T00350033  RH  099%=      5-min Rain = 0
KWA1 091044Z 26004KT 03/03 A3028 RMK A01 T00340032  RH  099%=      5-min Rain = 0
KWA1 091045Z 26004KT 03/03 A3028 RMK A01 T00330031  RH  099%=      5-min Rain = 0
KWA1 091046Z 26003KT 03/03 A3028 RMK A01 T00320030  RH  099%=      5-min Rain = 0
KWA1 091047Z 25003KT 03/03 A3028 RMK A01 T00320030  RH  099%=      5-min Rain = 0
KWA1 091048Z 25003KT 03/03 A3028 RMK A01 T00310030  RH  099%=      5-min Rain = 0
KWA1 091049Z 25004KT 03/03 A3028 RMK A01 T00310029  RH  099%=      5-min Rain = 0
KWA1 091050Z 25004KT 03/03 A3028 RMK A01 T00310029  RH  099%=      5-min Rain = 0
KWA1 091051Z 26004KT 03/03 A3028 RMK A01 T00310029  RH  099%=      5-min Rain = 0
KWA1 091052Z 26005KT 03/03 A3028 RMK A01 T00300028  RH  099%=      5-min Rain = 0
KWA1 091053Z 26005KT 03/03 A3028 RMK A01 T00290027  RH  099%=      5-min Rain = 0
KWA1 091054Z 26005KT 03/03 A3028 RMK A01 T00300028  RH  099%=      5-min Rain = 0
KWA1 091055Z 25006KT 03/03 A3028 RMK A01 T00320030  RH  099%=      5-min Rain = 0
KWA1 091056Z 25005KT 03/03 A3028 RMK A01 T00330032  RH  099%=      5-min Rain = 0
KWA1 091057Z 25005KT 03/03 A3028 RMK A01 T00340033  RH  099%=      5-min Rain = 0
KWA1 091058Z 26006KT 03/03 A3028 RMK A01 T00340033  RH  099%=      5-min Rain = 0
KWA1 091059Z 26006KT 03/03 A3028 RMK A01 T00340033  RH  099%=      5-min Rain = 0
KWA1 091100Z 26005KT 04/03 A3028 RMK A01 T00350033  RH  099%=      5-min Rain = 0
KWA1 091101Z 26005KT 04/03 A3028 RMK A01 T00350034  RH  099%=      5-min Rain = 0
KWA1 091102Z 25005KT 04/03 A3028 RMK A01 T00350033  RH  099%=      5-min Rain = 0
KWA1 091103Z 25005KT 04/03 A3028 RMK A01 T00350033  RH  099%=      5-min Rain = 0
KWA1 091104Z 25006KT 04/03 A3028 RMK A01 T00350033  RH  099%=      5-min Rain = 0
KWA1 091105Z 25006KT 04/03 A3028 RMK A01 T00350034  RH  099%=      5-min Rain = 0
KWA1 091106Z 25006KT 04/03 A3028 RMK A01 T00350033  RH  099%=      5-min Rain = 0
KWA1 091107Z 25006KT 04/03 A3028 RMK A01 T00350034  RH  099%=      5-min Rain = 0
KWA1 091108Z 26006KT 04/03 A3028 RMK A01 T00350034  RH  099%=      5-min Rain = 0
KWA1 091109Z 26005KT 04/03 A3028 RMK A01 T00360034  RH  099%=      5-min Rain = 0
KWA1 091110Z 26005KT 04/04 A3028 RMK A01 T00360035  RH  099%=      5-min Rain = 0
KWA1 091111Z 26005KT 04/04 A3028 RMK A01 T00360035  RH  099%=      5-min Rain = 0
KWA1 091112Z 26005KT 04/04 A3028 RMK A01 T00360035  RH  099%=      5-min Rain = 0
KWA1 091113Z 26005KT 04/04 A3028 RMK A01 T00370035  RH  099%=      5-min Rain = 0
KWA1 091114Z 27005KT 04/04 A3028 RMK A01 T00370036  RH  099%=      5-min Rain = 0
KWA1 091115Z 27005KT 04/04 A3028 RMK A01 T00370036  RH  099%=      5-min Rain = 0
KWA1 091116Z 27005KT 04/04 A3028 RMK A01 T00370036  RH  099%=      5-min Rain = 0
KWA1 091117Z 27004KT 04/04 A3028 RMK A01 T00370036  RH  099%=      5-min Rain = 0
KWA1 091118Z 27004KT 04/04 A3028 RMK A01 T00370035  RH  099%=      5-min Rain = 0
KWA1 091119Z 27004KT 04/04 A3028 RMK A01 T00360035  RH  099%=      5-min Rain = 0
KWA1 091120Z 26005KT 04/04 A3028 RMK A01 T00360035  RH  099%=      5-min Rain = 0
KWA1 091121Z 26005KT 04/04 A3028 RMK A01 T00360035  RH  099%=      5-min Rain = 0
KWA1 091122Z 26005KT 04/04 A3028 RMK A01 T00360035  RH  099%=      5-min Rain = 0
KWA1 091123Z 27005KT 04/03 A3028 RMK A01 T00360034  RH  099%=      5-min Rain = 0
KWA1 091124Z 27005KT 04/03 A3028 RMK A01 T00360034  RH  099%=      5-min Rain = 0
KWA1 091125Z 26005KT 04/03 A3028 RMK A01 T00350033  RH  099%=      5-min Rain = 0
KWA1 091126Z 26005KT 04/03 A3028 RMK A01 T00350033  RH  099%=      5-min Rain = 0
KWA1 091127Z 26005KT 04/03 A3028 RMK A01 T00350033  RH  099%=      5-min Rain = 0
KWA1 091128Z 26004KT 04/03 A3028 RMK A01 T00350033  RH  099%=      5-min Rain = 0
KWA1 091129Z 26004KT 04/03 A3028 RMK A01 T00350033  RH  099%=      5-min Rain = 0
KWA1 091130Z 26004KT 04/03 A3028 RMK A01 T00350034  RH  099%=      5-min Rain = 0
KWA1 091131Z 26005KT 04/03 A3028 RMK A01 T00350033  RH  099%=      5-min Rain = 0
KWA1 091132Z 26005KT 04/03 A3028 RMK A01 T00350033  RH  099%=      5-min Rain = 0
KWA1 091133Z 26005KT 04/03 A3028 RMK A01 T00350033  RH  099%=      5-min Rain = 0
KWA1 091134Z 26005KT 04/03 A3028 RMK A01 T00360034  RH  099%=      5-min Rain = 0
KWA1 091135Z 26006KT 04/04 A3028 RMK A01 T00370035  RH  099%=      5-min Rain = 0
KWA1 091136Z 26006KT 04/04 A3028 RMK A01 T00380037  RH  099%=      5-min Rain = 0
KWA1 091137Z 25005KT 04/04 A3028 RMK A01 T00380037  RH  099%=      5-min Rain = 0
KWA1 091138Z 25005KT 04/04 A3028 RMK A01 T00390038  RH  099%=      5-min Rain = 0
KWA1 091139Z 26005KT 04/04 A3028 RMK A01 T00400038  RH  099%=      5-min Rain = 0
KWA1 091140Z 26005KT 04/04 A3028 RMK A01 T00400039  RH  099%=      5-min Rain = 0
KWA1 091141Z 26005KT 04/04 A3028 RMK A01 T00410039  RH  099%=      5-min Rain = 0
KWA1 091142Z 26006KT 04/04 A3028 RMK A01 T00410040  RH  099%=      5-min Rain = 0
KWA1 091143Z 26005KT 04/04 A3028 RMK A01 T00410040  RH  099%=      5-min Rain = 0
KWA1 091144Z 26005KT 04/04 A3028 RMK A01 T00410040  RH  099%=      5-min Rain = 0
KWA1 091145Z 26005KT 04/04 A3028 RMK A01 T00410040  RH  099%=      5-min Rain = 0
KWA1 091146Z 26005KT 04/04 A3028 RMK A01 T00420040  RH  099%=      5-min Rain = 0
KWA1 091147Z 26005KT 04/04 A3028 RMK A01 T00420040  RH  099%=      5-min Rain = 0
KWA1 091148Z 26005KT 04/04 A3028 RMK A01 T00420040  RH  099%=      5-min Rain = 0
KWA1 091149Z 26005KT 04/04 A3028 RMK A01 T00420040  RH  099%=      5-min Rain = 0
KWA1 091150Z 26005KT 04/04 A3028 RMK A01 T00410040  RH  099%=      5-min Rain = 0
KWA1 091151Z 26005KT 04/04 A3028 RMK A01 T00410039  RH  099%=      5-min Rain = 0
KWA1 091152Z 25005KT 04/04 A3028 RMK A01 T00410039  RH  099%=      5-min Rain = 0
KWA1 091153Z 25005KT 04/04 A3028 RMK A01 T00400038  RH  099%=      5-min Rain = 0
KWA1 091154Z 25005KT 04/04 A3028 RMK A01 T00400038  RH  099%=      5-min Rain = 0
KWA1 091155Z 25005KT 04/04 A3028 RMK A01 T00400038  RH  099%=      5-min Rain = 0
KWA1 091156Z 25005KT 04/04 A3028 RMK A01 T00400039  RH  099%=      5-min Rain = 0
KWA1 091157Z 26005KT 04/04 A3028 RMK A01 T00400038  RH  099%=      5-min Rain = 0
KWA1 091158Z 26005KT 04/04 A3028 RMK A01 T00410039  RH  099%=      5-min Rain = 0
KWA1 091159Z 26005KT 04/04 A3028 RMK A01 T00400038  RH  099%=      5-min Rain = 0
KWA1 091200Z 26005KT 04/04 A3029 RMK A01 T00400039  RH  099%=      5-min Rain = 0
KWA1 091201Z 26005KT 04/04 A3029 RMK A01 T00400038  RH  099%=      5-min Rain = 0
KWA1 091202Z 26005KT 04/04 A3029 RMK A01 T00400038  RH  099%=      5-min Rain = 0
KWA1 091203Z 26005KT 04/04 A3029 RMK A01 T00400038  RH  099%=      5-min Rain = 0
KWA1 091204Z 26006KT 04/04 A3029 RMK A01 T00400038  RH  099%=      5-min Rain = 0
KWA1 091205Z 26005KT 04/04 A3029 RMK A01 T00400038  RH  099%=      5-min Rain = 0
KWA1 091206Z 26005KT 04/04 A3029 RMK A01 T00400038  RH  099%=      5-min Rain = 0
KWA1 091207Z 26005KT 04/04 A3029 RMK A01 T00400038  RH  099%=      5-min Rain = 0
KWA1 091208Z 26005KT 04/04 A3029 RMK A01 T00400038  RH  098%=      5-min Rain = 0
KWA1 091209Z 26006KT 04/04 A3029 RMK A01 T00390037  RH  098%=      5-min Rain = 0
KWA1 091210Z 25006KT 04/04 A3029 RMK A01 T00390037  RH  098%=      5-min Rain = 0
KWA1 091211Z 25006KT 04/04 A303 RMK A01 T00390036  RH  098%=      5-min Rain = 0
KWA1 091212Z 25006KT 04/04 A303 RMK A01 T00390036  RH  098%=      5-min Rain = 0
KWA1 091213Z 25006KT 04/04 A303 RMK A01 T00380036  RH  098%=      5-min Rain = 0
KWA1 091214Z 25006KT 04/04 A303 RMK A01 T00390036  RH  098%=      5-min Rain = 0
KWA1 091215Z 25005KT 04/04 A303 RMK A01 T00390036  RH  098%=      5-min Rain = 0
KWA1 091216Z 25005KT 04/04 A303 RMK A01 T00390037  RH  099%=      5-min Rain = 0
KWA1 091217Z 25005KT 04/04 A303 RMK A01 T00390037  RH  099%=      5-min Rain = 0
KWA1 091218Z 25005KT 04/04 A303 RMK A01 T00400037  RH  099%=      5-min Rain = 0
KWA1 091219Z 25005KT 04/04 A303 RMK A01 T00390037  RH  099%=      5-min Rain = 0
KWA1 091220Z 25005KT 04/04 A303 RMK A01 T00390037  RH  098%=      5-min Rain = 0
KWA1 091221Z 25005KT 04/04 A303 RMK A01 T00390037  RH  098%=      5-min Rain = 0
KWA1 091222Z 26005KT 04/04 A303 RMK A01 T00390037  RH  098%=      5-min Rain = 0
KWA1 091223Z 26005KT 04/04 A303 RMK A01 T00390037  RH  098%=      5-min Rain = 0
KWA1 091224Z 26005KT 04/04 A303 RMK A01 T00390037  RH  098%=      5-min Rain = 0
KWA1 091225Z 26005KT 04/04 A303 RMK A01 T00390037  RH  098%=      5-min Rain = 0
KWA1 091226Z 26005KT 04/04 A303 RMK A01 T00400037  RH  098%=      5-min Rain = 0
KWA1 091227Z 26005KT 04/04 A303 RMK A01 T00390037  RH  098%=      5-min Rain = 0
KWA1 091228Z 26004KT 04/04 A303 RMK A01 T00400038  RH  098%=      5-min Rain = 0
KWA1 091229Z 26004KT 04/04 A303 RMK A01 T00400038  RH  098%=      5-min Rain = 0
KWA1 091230Z 26004KT 04/04 A303 RMK A01 T00400038  RH  098%=      5-min Rain = 0
KWA1 091231Z 26004KT 04/04 A303 RMK A01 T00400038  RH  098%=      5-min Rain = 0
KWA1 091232Z 26004KT 04/04 A303 RMK A01 T00400037  RH  098%=      5-min Rain = 0
KWA1 091233Z 27004KT 04/04 A303 RMK A01 T00390037  RH  098%=      5-min Rain = 0
KWA1 091234Z 27003KT 04/04 A303 RMK A01 T00390036  RH  098%=      5-min Rain = 0
KWA1 091235Z 27003KT 04/04 A303 RMK A01 T00390036  RH  098%=      5-min Rain = 0
KWA1 091236Z 27003KT 04/04 A303 RMK A01 T00380035  RH  098%=      5-min Rain = 0
KWA1 091237Z 27002KT 04/04 A303 RMK A01 T00380035  RH  098%=      5-min Rain = 0
KWA1 091238Z 28001KT 04/04 A303 RMK A01 T00370035  RH  098%=      5-min Rain = 0
KWA1 091239Z 28002KT 04/03 A303 RMK A01 T00360033  RH  098%=      5-min Rain = 0
KWA1 091240Z 28002KT 04/03 A303 RMK A01 T00350032  RH  098%=      5-min Rain = 0
KWA1 091241Z 28002KT 03/03 A303 RMK A01 T00340031  RH  098%=      5-min Rain = 0
KWA1 091242Z 28001KT 03/03 A303 RMK A01 T00330030  RH  098%=      5-min Rain = 0
KWA1 091243Z 28001KT 03/03 A303 RMK A01 T00330030  RH  098%=      5-min Rain = 0
KWA1 091244Z 28001KT 03/03 A303 RMK A01 T00330030  RH  098%=      5-min Rain = 0
KWA1 091245Z 28001KT 03/03 A303 RMK A01 T00320030  RH  098%=      5-min Rain = 0
KWA1 091246Z 28001KT 03/03 A303 RMK A01 T00330031  RH  098%=      5-min Rain = 0
KWA1 091247Z 28001KT 03/03 A303 RMK A01 T00340031  RH  098%=      5-min Rain = 0
KWA1 091248Z 29001KT 03/03 A303 RMK A01 T00340032  RH  098%=      5-min Rain = 0
KWA1 091249Z 28002KT 03/03 A303 RMK A01 T00340032  RH  098%=      5-min Rain = 0
KWA1 091250Z 27002KT 04/03 A3029 RMK A01 T00350032  RH  099%=      5-min Rain = 0
KWA1 091251Z 26002KT 03/03 A3029 RMK A01 T00340032  RH  099%=      5-min Rain = 0
KWA1 091252Z 26003KT 03/03 A3029 RMK A01 T00340032  RH  098%=      5-min Rain = 0
KWA1 091253Z 26003KT 03/03 A3029 RMK A01 T00340032  RH  099%=      5-min Rain = 0
KWA1 091254Z 27002KT 03/03 A303 RMK A01 T00340032  RH  099%=      5-min Rain = 0
KWA1 091255Z 28003KT 03/03 A303 RMK A01 T00340032  RH  099%=      5-min Rain = 0
KWA1 091256Z 29003KT 03/03 A303 RMK A01 T00340032  RH  099%=      5-min Rain = 0
KWA1 091257Z 30003KT 03/03 A303 RMK A01 T00340032  RH  099%=      5-min Rain = 0
KWA1 091258Z 30003KT 03/03 A303 RMK A01 T00330030  RH  098%=      5-min Rain = 0
KWA1 091259Z 30003KT 03/03 A303 RMK A01 T00320029  RH  098%=      5-min Rain = 0
KWA1 091300Z 29003KT 03/03 A303 RMK A01 T00310028  RH  098%=      5-min Rain = 0
KWA1 091301Z 29003KT 03/03 A303 RMK A01 T00300027  RH  098%=      5-min Rain = 0
KWA1 091302Z 29003KT 03/03 A303 RMK A01 T00290027  RH  098%=      5-min Rain = 0
KWA1 091303Z 30003KT 03/03 A303 RMK A01 T00290026  RH  098%=      5-min Rain = 0
KWA1 091304Z 30003KT 03/03 A303 RMK A01 T00290026  RH  098%=      5-min Rain = 0
KWA1 091305Z 31004KT 03/03 A303 RMK A01 T00280026  RH  098%=      5-min Rain = 0
KWA1 091306Z 31004KT 03/03 A303 RMK A01 T00280026  RH  098%=      5-min Rain = 0
KWA1 091307Z 31004KT 03/03 A303 RMK A01 T00280026  RH  098%=      5-min Rain = 0
KWA1 091308Z 31004KT 03/03 A303 RMK A01 T00280026  RH  099%=      5-min Rain = 0
KWA1 091309Z 31004KT 03/03 A303 RMK A01 T00280026  RH  099%=      5-min Rain = 0
KWA1 091310Z 31004KT 03/03 A303 RMK A01 T00280026  RH  099%=      5-min Rain = 0
KWA1 091311Z 30004KT 03/03 A303 RMK A01 T00280027  RH  099%=      5-min Rain = 0
KWA1 091312Z 30004KT 03/03 A303 RMK A01 T00280027  RH  099%=      5-min Rain = 0
KWA1 091313Z 30003KT 03/03 A303 RMK A01 T00280027  RH  099%=      5-min Rain = 0
KWA1 091314Z 29003KT 03/03 A303 RMK A01 T00280026  RH  099%=      5-min Rain = 0
KWA1 091315Z 29004KT 03/03 A303 RMK A01 T00290027  RH  099%=      5-min Rain = 0
KWA1 091316Z 29003KT 03/03 A303 RMK A01 T00300029  RH  099%=      5-min Rain = 0
KWA1 091317Z 29003KT 03/03 A303 RMK A01 T00300029  RH  099%=      5-min Rain = 0
KWA1 091318Z 29003KT 03/03 A303 RMK A01 T00310029  RH  099%=      5-min Rain = 0
KWA1 091319Z 29004KT 03/03 A303 RMK A01 T00310030  RH  099%=      5-min Rain = 0
KWA1 091320Z 28004KT 03/03 A303 RMK A01 T00320030  RH  099%=      5-min Rain = 0
KWA1 091321Z 28004KT 03/03 A303 RMK A01 T00320030  RH  099%=      5-min Rain = 0
KWA1 091322Z 28004KT 03/03 A303 RMK A01 T00320030  RH  099%=      5-min Rain = 0
KWA1 091323Z 28003KT 03/03 A303 RMK A01 T00320030  RH  099%=      5-min Rain = 0
KWA1 091324Z 27003KT 03/03 A303 RMK A01 T00330031  RH  099%=      5-min Rain = 0
KWA1 091325Z 27003KT 04/03 A303 RMK A01 T00350033  RH  099%=      5-min Rain = 0
KWA1 091326Z 27003KT 04/04 A303 RMK A01 T00360035  RH  099%=      5-min Rain = 0
KWA1 091327Z 27004KT 04/04 A303 RMK A01 T00380036  RH  099%=      5-min Rain = 0
KWA1 091328Z 26003KT 04/04 A303 RMK A01 T00400038  RH  099%=      5-min Rain = 0
KWA1 091329Z 26003KT 04/04 A303 RMK A01 T00410039  RH  099%=      5-min Rain = 0
KWA1 091330Z 25002KT 04/04 A303 RMK A01 T00430041  RH  099%=      5-min Rain = 0
KWA1 091331Z 24002KT 04/04 A303 RMK A01 T00430042  RH  099%=      5-min Rain = 0
KWA1 091332Z 23002KT 04/04 A303 RMK A01 T00440042  RH  099%=      5-min Rain = 0
KWA1 091333Z 23003KT 04/04 A303 RMK A01 T00440042  RH  099%=      5-min Rain = 0
KWA1 091334Z 21002KT 04/04 A303 RMK A01 T00440042  RH  099%=      5-min Rain = 0
KWA1 091335Z 21002KT 04/04 A303 RMK A01 T00440043  RH  099%=      5-min Rain = 0
KWA1 091336Z 20002KT 05/04 A303 RMK A01 T00450043  RH  099%=      5-min Rain = 0
KWA1 091337Z 19002KT 05/04 A303 RMK A01 T00450044  RH  099%=      5-min Rain = 0
KWA1 091338Z 19002KT 05/04 A3031 RMK A01 T00450044  RH  099%=      5-min Rain = 0
KWA1 091339Z 19002KT 05/04 A3031 RMK A01 T00450042  RH  099%=      5-min Rain = 0
KWA1 091340Z 19002KT 04/04 A3031 RMK A01 T00440042  RH  099%=      5-min Rain = 0
KWA1 091341Z 19002KT 05/04 A3031 RMK A01 T00450043  RH  099%=      5-min Rain = 0
KWA1 091342Z 19001KT 05/04 A3031 RMK A01 T00450043  RH  099%=      5-min Rain = 0
KWA1 091343Z 19002KT 05/04 A3031 RMK A01 T00460044  RH  099%=      5-min Rain = 0
KWA1 091344Z 19001KT 05/05 A3031 RMK A01 T00460045  RH  099%=      5-min Rain = 0
KWA1 091345Z 21001KT 05/04 A3031 RMK A01 T00460044  RH  099%=      5-min Rain = 0
KWA1 091346Z 20002KT 05/05 A3031 RMK A01 T00470045  RH  099%=      5-min Rain = 0
KWA1 091347Z 18003KT 05/05 A3031 RMK A01 T00470045  RH  099%=      5-min Rain = 0
KWA1 091348Z 19002KT 05/05 A3031 RMK A01 T00480046  RH  099%=      5-min Rain = 0
KWA1 091349Z 21001KT 05/05 A3031 RMK A01 T00490047  RH  099%=      5-min Rain = 0
KWA1 091350Z 19002KT 05/05 A3031 RMK A01 T00480047  RH  099%=      5-min Rain = 0
KWA1 091351Z 18003KT 05/05 A3031 RMK A01 T00490047  RH  099%=      5-min Rain = 0
KWA1 091352Z 19003KT 05/05 A3031 RMK A01 T00490047  RH  099%=      5-min Rain = 0
KWA1 091353Z 21002KT 05/05 A3031 RMK A01 T00490047  RH  099%=      5-min Rain = 0
KWA1 091354Z 21002KT 05/05 A3031 RMK A01 T00500048  RH  099%=      5-min Rain = 0
KWA1 091355Z 20002KT 05/05 A3031 RMK A01 T00500048  RH  099%=      5-min Rain = 0
KWA1 091356Z 20002KT 05/05 A3031 RMK A01 T00510049  RH  099%=      5-min Rain = 0
KWA1 091357Z 20002KT 05/05 A3031 RMK A01 T00510049  RH  099%=      5-min Rain = 0
KWA1 091358Z 19002KT 05/05 A3031 RMK A01 T00520050  RH  099%=      5-min Rain = 0
KWA1 091359Z 20004KT 05/05 A3031 RMK A01 T00520050  RH  099%=      5-min Rain = 0
KWA1 091400Z 20003KT 05/05 A3031 RMK A01 T00530051  RH  099%=      5-min Rain = 0
KWA1 091401Z 20003KT 05/05 A3031 RMK A01 T00530050  RH  098%=      5-min Rain = 0
KWA1 091402Z 21002KT 05/05 A3031 RMK A01 T00530050  RH  098%=      5-min Rain = 0
KWA1 091403Z 22002KT 05/05 A3031 RMK A01 T00540051  RH  098%=      5-min Rain = 0
KWA1 091404Z 22002KT 05/05 A3031 RMK A01 T00540052  RH  098%=      5-min Rain = 0
KWA1 091405Z 21002KT 05/05 A3031 RMK A01 T00540052  RH  098%=      5-min Rain = 0
KWA1 091406Z 21002KT 06/05 A3031 RMK A01 T00550052  RH  098%=      5-min Rain = 0
KWA1 091407Z 21002KT 06/05 A3031 RMK A01 T00560053  RH  098%=      5-min Rain = 0
KWA1 091408Z 22002KT 06/05 A3031 RMK A01 T00560053  RH  098%=      5-min Rain = 0
KWA1 091409Z 20003KT 06/05 A3031 RMK A01 T00560054  RH  098%=      5-min Rain = 0
KWA1 091410Z 23003KT 06/06 A3031 RMK A01 T00570055  RH  098%=      5-min Rain = 0
KWA1 091411Z 24003KT 06/05 A3031 RMK A01 T00570054  RH  098%=      5-min Rain = 0
KWA1 091412Z 22004KT 06/06 A3031 RMK A01 T00580055  RH  098%=      5-min Rain = 0
KWA1 091413Z 22004KT 06/06 A3031 RMK A01 T00580055  RH  098%=      5-min Rain = 0
KWA1 091414Z 21004KT 06/06 A3031 RMK A01 T00580055  RH  098%=      5-min Rain = 0
KWA1 091415Z 22004KT 06/06 A3031 RMK A01 T00600056  RH  098%=      5-min Rain = 0
KWA1 091416Z 21004KT 06/06 A3031 RMK A01 T00600056  RH  098%=      5-min Rain = 0
KWA1 091417Z 22004KT 06/06 A3031 RMK A01 T00600057  RH  097%=      5-min Rain = 0
KWA1 091418Z 22003KT 06/06 A3031 RMK A01 T00610057  RH  097%=      5-min Rain = 0
KWA1 091419Z 22004KT 06/06 A3031 RMK A01 T00610056  RH  097%=      5-min Rain = 0
KWA1 091420Z 23003KT 06/06 A3031 RMK A01 T00610056  RH  097%=      5-min Rain = 0
KWA1 091421Z 22003KT 06/06 A3031 RMK A01 T00620057  RH  097%=      5-min Rain = 0
KWA1 091422Z 22003KT 06/06 A3031 RMK A01 T00620057  RH  097%=      5-min Rain = 0
KWA1 091423Z 22002KT 06/06 A3031 RMK A01 T00630058  RH  097%=      5-min Rain = 0
KWA1 091424Z 23003KT 06/06 A3031 RMK A01 T00640059  RH  097%=      5-min Rain = 0
KWA1 091425Z 22002KT 06/06 A3031 RMK A01 T00640058  RH  096%=      5-min Rain = 0
KWA1 091426Z 22003KT 07/06 A3031 RMK A01 T00650060  RH  096%=      5-min Rain = 0
KWA1 091427Z 23003KT 07/06 A3031 RMK A01 T00650060  RH  096%=      5-min Rain = 0
KWA1 091428Z 24002KT 07/06 A3031 RMK A01 T00650059  RH  096%=      5-min Rain = 0
KWA1 091429Z 25002KT 07/06 A3031 RMK A01 T00660059  RH  095%=      5-min Rain = 0
KWA1 091430Z 24003KT 07/06 A3031 RMK A01 T00660059  RH  095%=      5-min Rain = 0
KWA1 091431Z 23003KT 07/06 A3031 RMK A01 T00670059  RH  095%=      5-min Rain = 0
KWA1 091432Z 23002KT 07/06 A3031 RMK A01 T00670059  RH  095%=      5-min Rain = 0
KWA1 091433Z 23003KT 07/06 A3031 RMK A01 T00690062  RH  095%=      5-min Rain = 0
KWA1 091434Z 22003KT 07/06 A3031 RMK A01 T00700062  RH  095%=      5-min Rain = 0
KWA1 091435Z 21003KT 07/06 A3031 RMK A01 T00710063  RH  095%=      5-min Rain = 0
KWA1 091436Z 22003KT 07/06 A3031 RMK A01 T00720064  RH  095%=      5-min Rain = 0
KWA1 091437Z 24002KT 07/06 A3031 RMK A01 T00720064  RH  095%=      5-min Rain = 0
KWA1 091438Z 22002KT 07/07 A3031 RMK A01 T00730065  RH  095%=      5-min Rain = 0
KWA1 091439Z 22003KT 08/07 A3031 RMK A01 T00750067  RH  095%=      5-min Rain = 0
KWA1 091440Z 22003KT 08/07 A3031 RMK A01 T00750067  RH  095%=      5-min Rain = 0
KWA1 091441Z 25002KT 08/07 A3031 RMK A01 T00760067  RH  094%=      5-min Rain = 0
KWA1 091442Z 25002KT 08/07 A3031 RMK A01 T00760067  RH  094%=      5-min Rain = 0
KWA1 091443Z 27002KT 08/07 A3031 RMK A01 T00770067  RH  094%=      5-min Rain = 0
KWA1 091444Z 28003KT 08/07 A3031 RMK A01 T00770067  RH  093%=      5-min Rain = 0
KWA1 091445Z 27003KT 08/07 A3031 RMK A01 T00770066  RH  093%=      5-min Rain = 0
KWA1 091446Z 26003KT 08/07 A3031 RMK A01 T00770066  RH  093%=      5-min Rain = 0
KWA1 091447Z 26002KT 08/07 A3031 RMK A01 T00780067  RH  093%=      5-min Rain = 0
KWA1 091448Z 26002KT 08/07 A3031 RMK A01 T00780066  RH  092%=      5-min Rain = 0
KWA1 091449Z 25002KT 08/07 A3031 RMK A01 T00790069  RH  093%=      5-min Rain = 0
KWA1 091450Z 26003KT 08/07 A3031 RMK A01 T00800070  RH  093%=      5-min Rain = 0
KWA1 091451Z 26003KT 08/07 A3031 RMK A01 T00810070  RH  092%=      5-min Rain = 0
KWA1 091452Z 26003KT 08/07 A3031 RMK A01 T00820069  RH  092%=      5-min Rain = 0
KWA1 091453Z 26002KT 08/07 A3031 RMK A01 T00820069  RH  092%=      5-min Rain = 0
KWA1 091454Z 26002KT 08/07 A3031 RMK A01 T00830070  RH  091%=      5-min Rain = 0
KWA1 091455Z 26003KT 08/07 A3031 RMK A01 T00840071  RH  092%=      5-min Rain = 0
KWA1 091456Z 26003KT 08/07 A3031 RMK A01 T00840071  RH  091%=      5-min Rain = 0
KWA1 091457Z 27003KT 09/07 A3031 RMK A01 T00850071  RH  091%=      5-min Rain = 0
KWA1 091458Z 28003KT 09/07 A3031 RMK A01 T00860072  RH  091%=      5-min Rain = 0
KWA1 091459Z 27003KT 09/07 A3031 RMK A01 T00870073  RH  091%=      5-min Rain = 0
KWA1 091500Z 27003KT 09/07 A3031 RMK A01 T00880073  RH  091%=      5-min Rain = 0
KWA1 091501Z 28003KT 09/07 A3031 RMK A01 T00880072  RH  089%=      5-min Rain = 0
KWA1 091502Z 27003KT 09/07 A3031 RMK A01 T00880072  RH  089%=      5-min Rain = 0
KWA1 091503Z 28002KT 09/07 A3031 RMK A01 T00890073  RH  090%=      5-min Rain = 0
KWA1 091504Z 27003KT 09/08 A3031 RMK A01 T00900075  RH  090%=      5-min Rain = 0
KWA1 091505Z 26003KT 09/08 A3031 RMK A01 T00910075  RH  089%=      5-min Rain = 0
KWA1 091506Z 24003KT 09/08 A3031 RMK A01 T00930077  RH  090%=      5-min Rain = 0
KWA1 091507Z 24003KT 09/08 A3031 RMK A01 T00940077  RH  089%=      5-min Rain = 0
KWA1 091508Z 24003KT 10/08 A3031 RMK A01 T00950076  RH  088%=      5-min Rain = 0
KWA1 091509Z 25002KT 10/08 A3031 RMK A01 T00950076  RH  088%=      5-min Rain = 0
KWA1 091510Z 26002KT 10/08 A3031 RMK A01 T00950075  RH  087%=      5-min Rain = 0
KWA1 091511Z 29002KT 10/08 A3031 RMK A01 T00960077  RH  088%=      5-min Rain = 0
KWA1 091512Z 28003KT 10/08 A3031 RMK A01 T00970076  RH  087%=      5-min Rain = 0
KWA1 091513Z 28002KT 10/08 A3031 RMK A01 T00970076  RH  087%=      5-min Rain = 0
KWA1 091514Z 27003KT 10/07 A3031 RMK A01 T00970074  RH  086%=      5-min Rain = 0
KWA1 091515Z 26002KT 10/07 A3031 RMK A01 T00970074  RH  085%=      5-min Rain = 0
KWA1 091516Z 27002KT 10/07 A3031 RMK A01 T00980074  RH  086%=      5-min Rain = 0
KWA1 091517Z 29002KT 10/08 A3031 RMK A01 T00980075  RH  086%=      5-min Rain = 0
KWA1 091518Z 29002KT 10/08 A3031 RMK A01 T00990077  RH  086%=      5-min Rain = 0
KWA1 091519Z 27003KT 10/08 A3031 RMK A01 T01010080  RH  087%=      5-min Rain = 0
KWA1 091520Z 27002KT 10/08 A3031 RMK A01 T01020079  RH  086%=      5-min Rain = 0
KWA1 091521Z 27003KT 10/08 A3031 RMK A01 T01030077  RH  084%=      5-min Rain = 0
KWA1 091522Z 27002KT 10/08 A3031 RMK A01 T01020077  RH  084%=      5-min Rain = 0
KWA1 091523Z 27002KT 10/08 A3031 RMK A01 T01030078  RH  085%=      5-min Rain = 0
KWA1 091524Z 26002KT 10/08 A3031 RMK A01 T01040081  RH  085%=      5-min Rain = 0
KWA1 091525Z 27003KT 11/08 A3031 RMK A01 T01060080  RH  084%=      5-min Rain = 0
KWA1 091526Z 26003KT 11/08 A3031 RMK A01 T01060078  RH  083%=      5-min Rain = 0
KWA1 091527Z 26003KT 11/08 A3031 RMK A01 T01050078  RH  083%=      5-min Rain = 0
KWA1 091528Z 25003KT 11/08 A3031 RMK A01 T01050080  RH  084%=      5-min Rain = 0
KWA1 091529Z 26003KT 11/08 A3031 RMK A01 T01060080  RH  084%=      5-min Rain = 0
KWA1 091530Z 25003KT 11/08 A3031 RMK A01 T01060077  RH  082%=      5-min Rain = 0
KWA1 091531Z 27003KT 11/08 A3031 RMK A01 T01060078  RH  083%=      5-min Rain = 0
KWA1 091532Z 26003KT 11/08 A3031 RMK A01 T01070079  RH  083%=      5-min Rain = 0
KWA1 091533Z 26002KT 11/08 A3031 RMK A01 T01070077  RH  082%=      5-min Rain = 0
KWA1 091534Z 25002KT 11/08 A3031 RMK A01 T01070079  RH  083%=      5-min Rain = 0
KWA1 091535Z 24003KT 11/08 A3031 RMK A01 T01080080  RH  083%=      5-min Rain = 0
KWA1 091536Z 25003KT 11/08 A3031 RMK A01 T01090081  RH  083%=      5-min Rain = 0
KWA1 091537Z 26003KT 11/08 A3031 RMK A01 T01090078  RH  081%=      5-min Rain = 0
KWA1 091538Z 26003KT 11/08 A3031 RMK A01 T01100081  RH  082%=      5-min Rain = 0
KWA1 091539Z 24003KT 11/08 A3031 RMK A01 T01120084  RH  083%=      5-min Rain = 0
KWA1 091540Z 24003KT 11/09 A3031 RMK A01 T01140086  RH  082%=      5-min Rain = 0
KWA1 091541Z 24004KT 12/08 A3031 RMK A01 T01160082  RH  080%=      5-min Rain = 0
KWA1 091542Z 24003KT 12/08 A3031 RMK A01 T01150082  RH  080%=      5-min Rain = 0
KWA1 091543Z 22002KT 12/08 A3031 RMK A01 T01150082  RH  080%=      5-min Rain = 0
KWA1 091544Z 23002KT 12/09 A3031 RMK A01 T01170086  RH  081%=      5-min Rain = 0
KWA1 091545Z 26004KT 12/08 A3031 RMK A01 T01180083  RH  079%=      5-min Rain = 0
KWA1 091546Z 26004KT 12/08 A3031 RMK A01 T01170080  RH  078%=      5-min Rain = 0
KWA1 091547Z 24003KT 12/08 A3031 RMK A01 T01160083  RH  080%=      5-min Rain = 0
KWA1 091548Z 23004KT 12/08 A3031 RMK A01 T01160081  RH  079%=      5-min Rain = 0
KWA1 091549Z 23003KT 12/08 A3031 RMK A01 T01150081  RH  079%=      5-min Rain = 0
KWA1 091550Z 23003KT 12/09 A3031 RMK A01 T01160085  RH  082%=      5-min Rain = 0
KWA1 091551Z 22003KT 12/08 A3031 RMK A01 T01170084  RH  081%=      5-min Rain = 0
KWA1 091552Z 23004KT 12/08 A3031 RMK A01 T01170084  RH  080%=      5-min Rain = 0
KWA1 091553Z 23003KT 12/08 A3031 RMK A01 T01180084  RH  080%=      5-min Rain = 0
KWA1 091554Z 25002KT 12/09 A3031 RMK A01 T01190086  RH  080%=      5-min Rain = 0
KWA1 091555Z 27003KT 12/09 A3031 RMK A01 T01200089  RH  081%=      5-min Rain = 0
KWA1 091556Z 28005KT 12/09 A3031 RMK A01 T01210085  RH  079%=      5-min Rain = 0
KWA1 091557Z 28004KT 12/08 A3031 RMK A01 T01190082  RH  078%=      5-min Rain = 0
KWA1 091558Z 28004KT 12/08 A3031 RMK A01 T01180082  RH  079%=      5-min Rain = 0
KWA1 091559Z 29003KT 12/08 A3031 RMK A01 T01170084  RH  080%=      5-min Rain = 0
KWA1 091600Z 28004KT 12/09 A3031 RMK A01 T01180085  RH  080%=      5-min Rain = 0
KWA1 091601Z 27003KT 12/08 A3031 RMK A01 T01190083  RH  079%=      5-min Rain = 0
KWA1 091602Z 26004KT 12/09 A3031 RMK A01 T01190086  RH  080%=      5-min Rain = 0
KWA1 091603Z 27004KT 12/09 A3031 RMK A01 T01200085  RH  079%=      5-min Rain = 0
KWA1 091604Z 27004KT 12/09 A3031 RMK A01 T01210087  RH  080%=      5-min Rain = 0
KWA1 091605Z 27004KT 12/09 A3031 RMK A01 T01220088  RH  080%=      5-min Rain = 0
KWA1 091606Z 27003KT 12/08 A3031 RMK A01 T01220083  RH  077%=      5-min Rain = 0
KWA1 091607Z 27002KT 12/09 A3031 RMK A01 T01210085  RH  078%=      5-min Rain = 0
KWA1 091608Z 26005KT 12/09 A3031 RMK A01 T01230087  RH  078%=      5-min Rain = 0
KWA1 091609Z 26005KT 12/08 A3031 RMK A01 T01220082  RH  076%=      5-min Rain = 0
KWA1 091610Z 25003KT 12/08 A3031 RMK A01 T01200080  RH  077%=      5-min Rain = 0
KWA1 091611Z 27004KT 12/08 A3031 RMK A01 T01190083  RH  078%=      5-min Rain = 0
KWA1 091612Z 26004KT 12/09 A3031 RMK A01 T01200086  RH  079%=      5-min Rain = 0
KWA1 091613Z 26004KT 12/09 A3031 RMK A01 T01210086  RH  079%=      5-min Rain = 0
KWA1 091614Z 25004KT 12/09 A3031 RMK A01 T01220088  RH  079%=      5-min Rain = 0
KWA1 091615Z 23003KT 12/08 A3031 RMK A01 T01220084  RH  077%=      5-min Rain = 0
KWA1 091616Z 21002KT 12/09 A3031 RMK A01 T01230089  RH  079%=      5-min Rain = 0
KWA1 091617Z 25002KT 13/09 A3031 RMK A01 T01260092  RH  079%=      5-min Rain = 0
KWA1 091618Z 27004KT 13/09 A303 RMK A01 T01270088  RH  077%=      5-min Rain = 0
KWA1 091619Z 27002KT 13/09 A303 RMK A01 T01270087  RH  077%=      5-min Rain = 0
KWA1 091620Z 27004KT 13/09 A303 RMK A01 T01270092  RH  079%=      5-min Rain = 0
KWA1 091621Z 26004KT 13/09 A303 RMK A01 T01280089  RH  077%=      5-min Rain = 0
KWA1 091622Z 26003KT 13/09 A303 RMK A01 T01290088  RH  076%=      5-min Rain = 0
KWA1 091623Z 25004KT 13/09 A303 RMK A01 T01290091  RH  078%=      5-min Rain = 0
KWA1 091624Z 25002KT 13/09 A303 RMK A01 T01290086  RH  075%=      5-min Rain = 0
KWA1 091625Z 23001KT 13/09 A303 RMK A01 T01290087  RH  076%=      5-min Rain = 0
KWA1 091626Z 29002KT 13/10 A303 RMK A01 T01310096  RH  079%=      5-min Rain = 0
KWA1 091627Z 27004KT 14/10 A303 RMK A01 T01350098  RH  078%=      5-min Rain = 0
KWA1 091628Z 26003KT 13/09 A303 RMK A01 T01340089  RH  074%=      5-min Rain = 0
KWA1 091629Z 28002KT 13/09 A303 RMK A01 T01320090  RH  075%=      5-min Rain = 0
KWA1 091630Z 24002KT 13/09 A303 RMK A01 T01330093  RH  077%=      5-min Rain = 0
KWA1 091631Z 23004KT 14/09 A303 RMK A01 T01350094  RH  076%=      5-min Rain = 0
KWA1 091632Z 23004KT 14/09 A303 RMK A01 T01360092  RH  074%=      5-min Rain = 0
KWA1 091633Z 23004KT 14/09 A303 RMK A01 T01370090  RH  073%=      5-min Rain = 0
KWA1 091634Z 25005KT 14/09 A303 RMK A01 T01360089  RH  073%=      5-min Rain = 0
KWA1 091635Z 24005KT 14/09 A303 RMK A01 T01350089  RH  073%=      5-min Rain = 0
KWA1 091636Z 23005KT 13/09 A303 RMK A01 T01340091  RH  075%=      5-min Rain = 0
KWA1 091637Z 24007KT 13/09 A3029 RMK A01 T01340091  RH  075%=      5-min Rain = 0
KWA1 091638Z 26004KT 13/09 A3029 RMK A01 T01340088  RH  073%=      5-min Rain = 0
KWA1 091639Z 22005KT 13/09 A3029 RMK A01 T01340090  RH  075%=      5-min Rain = 0
KWA1 091640Z 21005KT 14/09 A3029 RMK A01 T01350090  RH  074%=      5-min Rain = 0
KWA1 091641Z 22005KT 14/09 A303 RMK A01 T01360092  RH  075%=      5-min Rain = 0
KWA1 091642Z 25005KT 14/09 A303 RMK A01 T01370093  RH  075%=      5-min Rain = 0
KWA1 091643Z 26006KT 14/09 A303 RMK A01 T01380093  RH  074%=      5-min Rain = 0
KWA1 091644Z 26005KT 14/10 A303 RMK A01 T01370095  RH  075%=      5-min Rain = 0
KWA1 091645Z 24004KT 14/10 A303 RMK A01 T01380098  RH  077%=      5-min Rain = 0
KWA1 091646Z 22005KT 14/10 A303 RMK A01 T01390096  RH  075%=      5-min Rain = 0
KWA1 091647Z 22004KT 14/10 A303 RMK A01 T01400096  RH  075%=      5-min Rain = 0
KWA1 091648Z 23004KT 14/10 A303 RMK A01 T01400095  RH  074%=      5-min Rain = 0
KWA1 091649Z 21005KT 14/10 A303 RMK A01 T01410098  RH  075%=      5-min Rain = 0
KWA1 091650Z 23005KT 14/10 A303 RMK A01 T01430099  RH  075%=      5-min Rain = 0
KWA1 091651Z 20003KT 14/10 A303 RMK A01 T01430100  RH  075%=      5-min Rain = 0
KWA1 091652Z 20003KT 15/10 A303 RMK A01 T01450100  RH  074%=      5-min Rain = 0
KWA1 091653Z 21003KT 15/10 A303 RMK A01 T01460100  RH  074%=      5-min Rain = 0
KWA1 091654Z 21005KT 15/10 A303 RMK A01 T01480102  RH  074%=      5-min Rain = 0
KWA1 091655Z 23004KT 15/10 A303 RMK A01 T01460096  RH  072%=      5-min Rain = 0
KWA1 091656Z 22005KT 15/10 A3029 RMK A01 T01450097  RH  073%=      5-min Rain = 0
KWA1 091657Z 22004KT 15/10 A3029 RMK A01 T01450096  RH  073%=      5-min Rain = 0
KWA1 091658Z 22005KT 15/10 A3029 RMK A01 T01450097  RH  073%=      5-min Rain = 0
KWA1 091659Z 24005KT 15/10 A3029 RMK A01 T01450096  RH  072%=      5-min Rain = 0
KWA1 091700Z 26004KT 14/10 A3029 RMK A01 T01440097  RH  073%=      5-min Rain = 0
KWA1 091701Z 27005KT 14/10 A3029 RMK A01 T01440099  RH  074%=      5-min Rain = 0
KWA1 091702Z 26004KT 14/10 A3029 RMK A01 T01440100  RH  075%=      5-min Rain = 0
KWA1 091703Z 26005KT 14/10 A3029 RMK A01 T01440101  RH  075%=      5-min Rain = 0
KWA1 091704Z 25004KT 14/10 A3029 RMK A01 T01440098  RH  074%=      5-min Rain = 0
KWA1 091705Z 26005KT 14/10 A3029 RMK A01 T01430099  RH  075%=      5-min Rain = 0
KWA1 091706Z 24006KT 14/10 A3029 RMK A01 T01440099  RH  074%=      5-min Rain = 0
KWA1 091707Z 24005KT 15/10 A3029 RMK A01 T01450100  RH  074%=      5-min Rain = 0
KWA1 091708Z 23005KT 15/10 A3029 RMK A01 T01450098  RH  073%=      5-min Rain = 0
KWA1 091709Z 25005KT 15/10 A3029 RMK A01 T01460098  RH  073%=      5-min Rain = 0
KWA1 091710Z 26005KT 15/10 A3029 RMK A01 T01460102  RH  075%=      5-min Rain = 0
KWA1 091711Z 25005KT 15/10 A3029 RMK A01 T01460102  RH  075%=      5-min Rain = 0
KWA1 091712Z 27005KT 15/11 A3029 RMK A01 T01470107  RH  077%=      5-min Rain = 0
KWA1 091713Z 28004KT 15/10 A3029 RMK A01 T01470102  RH  074%=      5-min Rain = 0
KWA1 091714Z 27004KT 15/10 A3029 RMK A01 T01470101  RH  074%=      5-min Rain = 0
KWA1 091715Z 27004KT 15/10 A3029 RMK A01 T01460100  RH  074%=      5-min Rain = 0
KWA1 091716Z 27005KT 15/10 A3029 RMK A01 T01470104  RH  075%=      5-min Rain = 0
KWA1 091717Z 26005KT 15/11 A3029 RMK A01 T01490109  RH  077%=      5-min Rain = 0
KWA1 091718Z 25004KT 15/10 A3029 RMK A01 T01490101  RH  073%=      5-min Rain = 0
KWA1 091719Z 25003KT 15/11 A3029 RMK A01 T01480105  RH  075%=      5-min Rain = 0
KWA1 091720Z 23002KT 15/10 A3029 RMK A01 T01490104  RH  074%=      5-min Rain = 0
KWA1 091721Z 24002KT 15/10 A3029 RMK A01 T01500101  RH  073%=      5-min Rain = 0
KWA1 091722Z 24003KT 15/10 A3029 RMK A01 T01500101  RH  073%=      5-min Rain = 0
KWA1 091723Z 24003KT 15/10 A3029 RMK A01 T01520102  RH  072%=      5-min Rain = 0
KWA1 091724Z 19002KT 15/10 A3029 RMK A01 T01530104  RH  073%=      5-min Rain = 0
KWA1 091725Z 19003KT 15/10 A3029 RMK A01 T01540104  RH  072%=      5-min Rain = 0
KWA1 091726Z 22003KT 16/10 A3029 RMK A01 T01550104  RH  072%=      5-min Rain = 0
KWA1 091727Z 23003KT 16/11 A3029 RMK A01 T01560106  RH  072%=      5-min Rain = 0
KWA1 091728Z 19002KT 16/11 A3029 RMK A01 T01580106  RH  071%=      5-min Rain = 0
KWA1 091729Z 21003KT 16/11 A3029 RMK A01 T01600106  RH  070%=      5-min Rain = 0
KWA1 091730Z 28003KT 16/11 A3029 RMK A01 T01600107  RH  071%=      5-min Rain = 0
KWA1 091731Z 27003KT 16/11 A3028 RMK A01 T01600105  RH  070%=      5-min Rain = 0
KWA1 091732Z 24004KT 16/11 A3028 RMK A01 T01580105  RH  071%=      5-min Rain = 0
KWA1 091733Z 22005KT 16/11 A3028 RMK A01 T01580108  RH  072%=      5-min Rain = 0
KWA1 091734Z 24004KT 16/11 A3028 RMK A01 T01590105  RH  070%=      5-min Rain = 0
KWA1 091735Z 23004KT 16/11 A3028 RMK A01 T01590105  RH  071%=      5-min Rain = 0
KWA1 091736Z 22005KT 16/11 A3028 RMK A01 T01600105  RH  070%=      5-min Rain = 0
KWA1 091737Z 21004KT 16/10 A3028 RMK A01 T01600104  RH  069%=      5-min Rain = 0
KWA1 091738Z 23004KT 16/11 A3028 RMK A01 T01610107  RH  070%=      5-min Rain = 0
KWA1 091739Z 23003KT 16/11 A3028 RMK A01 T01620106  RH  069%=      5-min Rain = 0
KWA1 091740Z 21001KT 16/11 A3028 RMK A01 T01630105  RH  068%=      5-min Rain = 0
KWA1 091741Z 22003KT 17/11 A3028 RMK A01 T01650110  RH  070%=      5-min Rain = 0
KWA1 091742Z 21004KT 17/11 A3028 RMK A01 T01680112  RH  070%=      5-min Rain = 0
KWA1 091743Z 21003KT 17/11 A3028 RMK A01 T01690108  RH  067%=      5-min Rain = 0
KWA1 091744Z 18002KT 17/11 A3028 RMK A01 T01690109  RH  068%=      5-min Rain = 0
KWA1 091745Z 20003KT 17/11 A3028 RMK A01 T01700109  RH  068%=      5-min Rain = 0
KWA1 091746Z 27003KT 17/11 A3028 RMK A01 T01700110  RH  068%=      5-min Rain = 0
KWA1 091747Z 27004KT 17/11 A3027 RMK A01 T01690114  RH  070%=      5-min Rain = 0
KWA1 091748Z 25004KT 17/11 A3027 RMK A01 T01670108  RH  068%=      5-min Rain = 0
KWA1 091749Z 26003KT 16/11 A3027 RMK A01 T01640108  RH  069%=      5-min Rain = 0
KWA1 091750Z 24003KT 16/11 A3027 RMK A01 T01640110  RH  070%=      5-min Rain = 0
KWA1 091751Z 29004KT 17/12 A3027 RMK A01 T01660115  RH  072%=      5-min Rain = 0
KWA1 091752Z 28005KT 17/11 A3027 RMK A01 T01670112  RH  070%=      5-min Rain = 0
KWA1 091753Z 29004KT 17/11 A3027 RMK A01 T01650106  RH  068%=      5-min Rain = 0
KWA1 091754Z 30004KT 16/11 A3027 RMK A01 T01640108  RH  070%=      5-min Rain = 0
KWA1 091755Z 30003KT 16/11 A3027 RMK A01 T01630111  RH  071%=      5-min Rain = 0
KWA1 091756Z 30003KT 16/12 A3027 RMK A01 T01640115  RH  073%=      5-min Rain = 0
KWA1 091757Z 26003KT 17/11 A3027 RMK A01 T01650113  RH  071%=      5-min Rain = 0
KWA1 091758Z 25004KT 17/12 A3027 RMK A01 T01660115  RH  072%=      5-min Rain = 0
KWA1 091759Z 25005KT 17/11 A3027 RMK A01 T01670111  RH  069%=      5-min Rain = 0
KWA1 091800Z 24004KT 17/11 A3027 RMK A01 T01670114  RH  071%=      5-min Rain = 0
KWA1 091801Z 25003KT 17/11 A3027 RMK A01 T01680109  RH  068%=      5-min Rain = 0
KWA1 091802Z 26004KT 17/11 A3027 RMK A01 T01670111  RH  069%=      5-min Rain = 0
KWA1 091803Z 25004KT 17/11 A3027 RMK A01 T01680111  RH  069%=      5-min Rain = 0
KWA1 091804Z 26003KT 17/11 A3027 RMK A01 T01670110  RH  069%=      5-min Rain = 0
KWA1 091805Z 29004KT 17/11 A3027 RMK A01 T01670109  RH  068%=      5-min Rain = 0
KWA1 091806Z 31003KT 17/11 A3026 RMK A01 T01680112  RH  069%=      5-min Rain = 0
KWA1 091807Z 31003KT 17/11 A3026 RMK A01 T01680111  RH  069%=      5-min Rain = 0
KWA1 091808Z 29002KT 17/11 A3026 RMK A01 T01680109  RH  068%=      5-min Rain = 0
KWA1 091809Z 27005KT 17/11 A3026 RMK A01 T01700114  RH  070%=      5-min Rain = 0
KWA1 091810Z 26006KT 17/12 A3026 RMK A01 T01710116  RH  070%=      5-min Rain = 0
KWA1 091811Z 26005KT 17/11 A3026 RMK A01 T01700112  RH  068%=      5-min Rain = 0
KWA1 091812Z 25004KT 17/11 A3026 RMK A01 T01700114  RH  069%=      5-min Rain = 0
KWA1 091813Z 22003KT 17/11 A3026 RMK A01 T01710111  RH  068%=      5-min Rain = 0
KWA1 091814Z 23003KT 17/11 A3026 RMK A01 T01720110  RH  067%=      5-min Rain = 0
KWA1 091815Z 25004KT 17/12 A3026 RMK A01 T01740116  RH  068%=      5-min Rain = 0
KWA1 091816Z 25004KT 18/11 A3026 RMK A01 T01760114  RH  067%=      5-min Rain = 0
KWA1 091817Z 25004KT 18/11 A3026 RMK A01 T01760114  RH  067%=      5-min Rain = 0
KWA1 091818Z 27006KT 18/12 A3026 RMK A01 T01760116  RH  068%=      5-min Rain = 0
KWA1 091819Z 28004KT 18/11 A3026 RMK A01 T01750112  RH  066%=      5-min Rain = 0
KWA1 091820Z 30004KT 18/12 A3025 RMK A01 T01750116  RH  068%=      5-min Rain = 0
KWA1 091821Z 26004KT 18/12 A3025 RMK A01 T01750118  RH  069%=      5-min Rain = 0
KWA1 091822Z 27004KT 18/12 A3025 RMK A01 T01770117  RH  068%=      5-min Rain = 0
KWA1 091823Z 29004KT 18/12 A3025 RMK A01 T01780120  RH  069%=      5-min Rain = 0
KWA1 091824Z 28004KT 18/12 A3025 RMK A01 T01790121  RH  069%=      5-min Rain = 0
KWA1 091825Z 29005KT 18/12 A3025 RMK A01 T01790120  RH  069%=      5-min Rain = 0
KWA1 091826Z 26004KT 18/12 A3025 RMK A01 T01790119  RH  068%=      5-min Rain = 0
KWA1 091827Z 29004KT 18/12 A3025 RMK A01 T01800124  RH  070%=      5-min Rain = 0
KWA1 091828Z 29005KT 18/12 A3025 RMK A01 T01820121  RH  068%=      5-min Rain = 0
KWA1 091829Z 30004KT 18/12 A3025 RMK A01 T01820115  RH  065%=      5-min Rain = 0
KWA1 091830Z 29003KT 18/12 A3025 RMK A01 T01810122  RH  068%=      5-min Rain = 0
KWA1 091831Z 28003KT 18/12 A3025 RMK A01 T01820118  RH  066%=      5-min Rain = 0
KWA1 091832Z 28005KT 18/12 A3025 RMK A01 T01830124  RH  068%=      5-min Rain = 0
KWA1 091833Z 27005KT 18/12 A3025 RMK A01 T01830120  RH  067%=      5-min Rain = 0
KWA1 091834Z 28003KT 18/12 A3024 RMK A01 T01830118  RH  066%=      5-min Rain = 0
KWA1 091835Z 27003KT 18/12 A3024 RMK A01 T01820117  RH  066%=      5-min Rain = 0
KWA1 091836Z 27002KT 18/12 A3024 RMK A01 T01820115  RH  065%=      5-min Rain = 0
KWA1 091837Z 27001KT 18/12 A3024 RMK A01 T01820119  RH  067%=      5-min Rain = 0
KWA1 091838Z 32002KT 18/11 A3024 RMK A01 T01830112  RH  063%=      5-min Rain = 0
KWA1 091839Z 28002KT 18/11 A3024 RMK A01 T01830114  RH  064%=      5-min Rain = 0
KWA1 091840Z 29002KT 18/11 A3024 RMK A01 T01830113  RH  063%=      5-min Rain = 0
KWA1 091841Z 29002KT 18/12 A3024 RMK A01 T01840115  RH  064%=      5-min Rain = 0
KWA1 091842Z 32001KT 19/12 A3024 RMK A01 T01860115  RH  064%=      5-min Rain = 0
KWA1 091843Z 28002KT 19/12 A3024 RMK A01 T01870121  RH  065%=      5-min Rain = 0
KWA1 091844Z 26003KT 19/12 A3024 RMK A01 T01880124  RH  066%=      5-min Rain = 0
KWA1 091845Z 24003KT 19/12 A3024 RMK A01 T01880118  RH  064%=      5-min Rain = 0
KWA1 091846Z 25003KT 19/12 A3024 RMK A01 T01880118  RH  064%=      5-min Rain = 0
KWA1 091847Z 26005KT 19/12 A3024 RMK A01 T01880118  RH  064%=      5-min Rain = 0
KWA1 091848Z 23004KT 19/12 A3023 RMK A01 T01870116  RH  063%=      5-min Rain = 0
KWA1 091849Z 20002KT 19/12 A3023 RMK A01 T01870118  RH  064%=      5-min Rain = 0
KWA1 091850Z 23002KT 19/12 A3023 RMK A01 T01890117  RH  063%=      5-min Rain = 0
KWA1 091851Z 27005KT 19/12 A3023 RMK A01 T01910123  RH  065%=      5-min Rain = 0
KWA1 091852Z 26005KT 19/12 A3023 RMK A01 T01910123  RH  065%=      5-min Rain = 0
KWA1 091853Z 27004KT 19/12 A3023 RMK A01 T01890120  RH  064%=      5-min Rain = 0
KWA1 091854Z 29005KT 19/12 A3023 RMK A01 T01880119  RH  064%=      5-min Rain = 0
KWA1 091855Z 29004KT 19/12 A3023 RMK A01 T01860117  RH  064%=      5-min Rain = 0
KWA1 091856Z 29003KT 19/12 A3023 RMK A01 T01850116  RH  064%=      5-min Rain = 0
KWA1 091857Z 27003KT 19/13 A3023 RMK A01 T01850125  RH  068%=      5-min Rain = 0
KWA1 091858Z 25003KT 19/12 A3023 RMK A01 T01870121  RH  065%=      5-min Rain = 0
KWA1 091859Z 21004KT 19/12 A3023 RMK A01 T01900121  RH  064%=      5-min Rain = 0
KWA1 091900Z 22002KT 19/12 A3023 RMK A01 T01910118  RH  063%=      5-min Rain = 0
KWA1 091901Z 18002KT 19/12 A3022 RMK A01 T01910120  RH  063%=      5-min Rain = 0
KWA1 091902Z 20002KT 19/12 A3022 RMK A01 T01910115  RH  061%=      5-min Rain = 0
KWA1 091903Z 21002KT 19/12 A3022 RMK A01 T01920117  RH  062%=      5-min Rain = 0
KWA1 091904Z 20001KT 19/12 A3022 RMK A01 T01940117  RH  061%=      5-min Rain = 0
KWA1 091905Z 31003KT 19/12 A3022 RMK A01 T01940120  RH  062%=      5-min Rain = 0
KWA1 091906Z 31004KT 19/12 A3022 RMK A01 T01940121  RH  063%=      5-min Rain = 0
KWA1 091907Z 32002KT 19/12 A3022 RMK A01 T01920120  RH  063%=      5-min Rain = 0
KWA1 091908Z 31003KT 19/13 A3022 RMK A01 T01910125  RH  065%=      5-min Rain = 0
KWA1 091909Z 31006KT 19/12 A3022 RMK A01 T01920124  RH  065%=      5-min Rain = 0
KWA1 091910Z 33005KT 19/13 A3022 RMK A01 T01910126  RH  066%=      5-min Rain = 0
KWA1 091911Z 34004KT 19/13 A3022 RMK A01 T01900125  RH  066%=      5-min Rain = 0
KWA1 091912Z 31005KT 19/13 A3022 RMK A01 T01900127  RH  067%=      5-min Rain = 0
KWA1 091913Z 30004KT 19/12 A3022 RMK A01 T01900123  RH  065%=      5-min Rain = 0
KWA1 091914Z 29002KT 19/12 A3021 RMK A01 T01890120  RH  064%=      5-min Rain = 0
KWA1 091915Z 33001KT 19/12 A3021 RMK A01 T01890122  RH  065%=      5-min Rain = 0
KWA1 091916Z 31002KT 19/13 A3021 RMK A01 T01910127  RH  066%=      5-min Rain = 0
KWA1 091917Z 32003KT 19/12 A3021 RMK A01 T01920120  RH  063%=      5-min Rain = 0
KWA1 091918Z 30003KT 19/12 A3021 RMK A01 T01910121  RH  064%=      5-min Rain = 0
KWA1 091919Z 23001KT 19/12 A3021 RMK A01 T01910119  RH  063%=      5-min Rain = 0
KWA1 091920Z 19002KT 19/12 A3021 RMK A01 T01930122  RH  063%=      5-min Rain = 0
KWA1 091921Z 21002KT 20/12 A3021 RMK A01 T01960124  RH  063%=      5-min Rain = 0
KWA1 091922Z 21002KT 20/12 A3021 RMK A01 T01960121  RH  062%=      5-min Rain = 0
KWA1 091923Z 23000KT 20/12 A3021 RMK A01 T01950120  RH  062%=      5-min Rain = 0
KWA1 091924Z 20000KT 20/12 A3021 RMK A01 T01950118  RH  061%=      5-min Rain = 0
KWA1 091925Z 20001KT 19/12 A3021 RMK A01 T01940121  RH  063%=      5-min Rain = 0
KWA1 091926Z 18001KT 20/12 A3021 RMK A01 T01950122  RH  062%=      5-min Rain = 0
KWA1 091927Z 17001KT 20/12 A3021 RMK A01 T01960121  RH  062%=      5-min Rain = 0
KWA1 091928Z 17002KT 20/12 A3021 RMK A01 T01980123  RH  062%=      5-min Rain = 0
KWA1 091929Z 19003KT 20/12 A3021 RMK A01 T02000122  RH  061%=      5-min Rain = 0
KWA1 091930Z 24005KT 20/13 A3021 RMK A01 T02000127  RH  063%=      5-min Rain = 0
KWA1 091931Z 24004KT 20/12 A302 RMK A01 T01990123  RH  061%=      5-min Rain = 0
KWA1 091932Z 23003KT 20/12 A302 RMK A01 T01980124  RH  062%=      5-min Rain = 0
KWA1 091933Z 21003KT 20/12 A302 RMK A01 T01980121  RH  061%=      5-min Rain = 0
KWA1 091934Z 17002KT 20/12 A302 RMK A01 T01990121  RH  061%=      5-min Rain = 0
KWA1 091935Z 23000KT 20/12 A302 RMK A01 T02010122  RH  061%=      5-min Rain = 0
KWA1 091936Z 23001KT 20/13 A302 RMK A01 T02030127  RH  062%=      5-min Rain = 0
KWA1 091937Z 22004KT 21/13 A302 RMK A01 T02050125  RH  060%=      5-min Rain = 0
KWA1 091938Z 20007KT 21/13 A302 RMK A01 T02050126  RH  060%=      5-min Rain = 0
KWA1 091939Z 22009KT 21/13 A302 RMK A01 T02050126  RH  060%=      5-min Rain = 0
KWA1 091940Z 22006KT 20/12 A302 RMK A01 T02040123  RH  060%=      5-min Rain = 0
KWA1 091941Z 21006KT 20/13 A302 RMK A01 T02030126  RH  061%=      5-min Rain = 0
KWA1 091942Z 18010KT 20/13 A302 RMK A01 T02040126  RH  061%=      5-min Rain = 0
KWA1 091943Z 19009KT 20/13 A302 RMK A01 T02030130  RH  063%=      5-min Rain = 0
KWA1 091944Z 19008KT 20/13 A302 RMK A01 T02030129  RH  063%=      5-min Rain = 0
KWA1 091945Z 20007KT 20/14 A302 RMK A01 T02040135  RH  064%=      5-min Rain = 0
KWA1 091946Z 21007KT 21/13 A302 RMK A01 T02070132  RH  062%=      5-min Rain = 0
KWA1 091947Z 20006KT 21/13 A302 RMK A01 T02070133  RH  062%=      5-min Rain = 0
KWA1 091948Z 19008KT 21/13 A302 RMK A01 T02090133  RH  062%=      5-min Rain = 0
KWA1 091949Z 19007KT 21/13 A302 RMK A01 T02080126  RH  059%=      5-min Rain = 0
KWA1 091950Z 18007KT 21/13 A302 RMK A01 T02050128  RH  061%=      5-min Rain = 0
KWA1 091951Z 20012KT 21/13 A302 RMK A01 T02050129  RH  062%=      5-min Rain = 0
KWA1 091952Z 19009KT 21/13 A302 RMK A01 T02050128  RH  061%=      5-min Rain = 0
KWA1 091953Z 17008KT 20/13 A302 RMK A01 T02040127  RH  061%=      5-min Rain = 0
KWA1 091954Z 19008KT 20/13 A302 RMK A01 T02040129  RH  062%=      5-min Rain = 0
KWA1 091955Z 21008KT 21/13 A3019 RMK A01 T02050127  RH  061%=      5-min Rain = 0
KWA1 091956Z 21009KT 21/13 A3019 RMK A01 T02060126  RH  060%=      5-min Rain = 0
KWA1 091957Z 21008KT 20/12 A3019 RMK A01 T02040123  RH  060%=      5-min Rain = 0
KWA1 091958Z 18005KT 20/12 A3019 RMK A01 T02030124  RH  060%=      5-min Rain = 0
KWA1 091959Z 20007KT 20/13 A3019 RMK A01 T02030125  RH  061%=      5-min Rain = 0
KWA1 092000Z 19007KT 20/12 A3019 RMK A01 T02020124  RH  061%=      5-min Rain = 0
KWA1 092001Z 21004KT 20/13 A3019 RMK A01 T02020126  RH  062%=      5-min Rain = 0
KWA1 092002Z 22004KT 20/13 A3019 RMK A01 T02030127  RH  062%=      5-min Rain = 0
KWA1 092003Z 20008KT 21/13 A3019 RMK A01 T02050130  RH  062%=      5-min Rain = 0
KWA1 092004Z 20008KT 21/13 A3019 RMK A01 T02060131  RH  062%=      5-min Rain = 0
KWA1 092005Z 20007KT 21/13 A3019 RMK A01 T02060129  RH  061%=      5-min Rain = 0
KWA1 092006Z 22009KT 21/13 A3019 RMK A01 T02050125  RH  060%=      5-min Rain = 0
KWA1 092007Z 21008KT 20/13 A3019 RMK A01 T02040128  RH  061%=      5-min Rain = 0
KWA1 092008Z 19007KT 21/13 A3019 RMK A01 T02050128  RH  061%=      5-min Rain = 0
KWA1 092009Z 19007KT 21/13 A3019 RMK A01 T02050127  RH  061%=      5-min Rain = 0
KWA1 092010Z 19007KT 20/13 A3019 RMK A01 T02040128  RH  062%=      5-min Rain = 0
KWA1 092011Z 18007KT 20/13 A3019 RMK A01 T02040128  RH  062%=      5-min Rain = 0
KWA1 092012Z 19008KT 20/13 A3019 RMK A01 T02040128  RH  062%=      5-min Rain = 0
KWA1 092013Z 20010KT 20/13 A3019 RMK A01 T02030128  RH  062%=      5-min Rain = 0
KWA1 092014Z 19009KT 20/13 A3019 RMK A01 T02030131  RH  063%=      5-min Rain = 0
KWA1 092015Z 19008KT 20/13 A3019 RMK A01 T02030127  RH  062%=      5-min Rain = 0
KWA1 092016Z 22007KT 20/13 A3019 RMK A01 T02020131  RH  063%=      5-min Rain = 0
KWA1 092017Z 23009KT 20/13 A3019 RMK A01 T02040127  RH  061%=      5-min Rain = 0
KWA1 092018Z 21010KT 20/13 A3019 RMK A01 T02040126  RH  061%=      5-min Rain = 0
KWA1 092019Z 21008KT 20/13 A3019 RMK A01 T02020125  RH  061%=      5-min Rain = 0
KWA1 092020Z 21008KT 20/13 A3019 RMK A01 T02010127  RH  062%=      5-min Rain = 0
KWA1 092021Z 21007KT 20/13 A3019 RMK A01 T02020126  RH  062%=      5-min Rain = 0
KWA1 092022Z 20007KT 20/12 A3019 RMK A01 T02000123  RH  061%=      5-min Rain = 0
KWA1 092023Z 20006KT 20/12 A3019 RMK A01 T02000124  RH  062%=      5-min Rain = 0
KWA1 092024Z 21008KT 20/13 A3019 RMK A01 T01990125  RH  062%=      5-min Rain = 0
KWA1 092025Z 19010KT 20/13 A3019 RMK A01 T02000127  RH  063%=      5-min Rain = 0
KWA1 092026Z 21006KT 20/13 A3019 RMK A01 T02010125  RH  062%=      5-min Rain = 0
KWA1 092027Z 19006KT 20/13 A3019 RMK A01 T02000129  RH  063%=      5-min Rain = 0
KWA1 092028Z 21008KT 20/13 A3019 RMK A01 T02020128  RH  063%=      5-min Rain = 0
KWA1 092029Z 21007KT 20/13 A3019 RMK A01 T02020130  RH  063%=      5-min Rain = 0
KWA1 092030Z 20009KT 20/13 A3019 RMK A01 T02040128  RH  062%=      5-min Rain = 0
KWA1 092031Z 20007KT 20/13 A3019 RMK A01 T02030128  RH  062%=      5-min Rain = 0
KWA1 092032Z 21008KT 20/12 A3019 RMK A01 T02010124  RH  061%=      5-min Rain = 0
KWA1 092033Z 20006KT 20/13 A3019 RMK A01 T02000126  RH  062%=      5-min Rain = 0
KWA1 092034Z 20010KT 20/13 A3019 RMK A01 T02010126  RH  062%=      5-min Rain = 0
KWA1 092035Z 19009KT 20/13 A3019 RMK A01 T02010130  RH  063%=      5-min Rain = 0
KWA1 092036Z 19008KT 20/13 A3019 RMK A01 T02020129  RH  062%=      5-min Rain = 0
KWA1 092037Z 21010KT 20/13 A3019 RMK A01 T02030131  RH  063%=      5-min Rain = 0
KWA1 092038Z 22009KT 20/13 A3019 RMK A01 T02040128  RH  062%=      5-min Rain = 0
KWA1 092039Z 21008KT 20/13 A3019 RMK A01 T02040129  RH  062%=      5-min Rain = 0
KWA1 092040Z 21008KT 20/13 A3019 RMK A01 T02040127  RH  061%=      5-min Rain = 0
KWA1 092041Z 19007KT 20/13 A3019 RMK A01 T02040129  RH  062%=      5-min Rain = 0
KWA1 092042Z 20006KT 20/13 A3018 RMK A01 T02040131  RH  063%=      5-min Rain = 0
KWA1 092043Z 22009KT 21/13 A3019 RMK A01 T02050127  RH  061%=      5-min Rain = 0
KWA1 092044Z 23007KT 20/13 A3018 RMK A01 T02040126  RH  060%=      5-min Rain = 0
KWA1 092045Z 24008KT 20/13 A3018 RMK A01 T02040125  RH  060%=      5-min Rain = 0
KWA1 092046Z 22007KT 20/13 A3018 RMK A01 T02020125  RH  061%=      5-min Rain = 0
KWA1 092047Z 20005KT 20/13 A3018 RMK A01 T02030129  RH  063%=      5-min Rain = 0
KWA1 092048Z 22006KT 21/13 A3018 RMK A01 T02050127  RH  061%=      5-min Rain = 0
KWA1 092049Z 21008KT 21/13 A3018 RMK A01 T02060128  RH  061%=      5-min Rain = 0
KWA1 092050Z 20007KT 21/13 A3018 RMK A01 T02060130  RH  062%=      5-min Rain = 0
KWA1 092051Z 20005KT 21/13 A3018 RMK A01 T02080130  RH  061%=      5-min Rain = 0
KWA1 092052Z 20008KT 21/13 A3018 RMK A01 T02080129  RH  060%=      5-min Rain = 0
KWA1 092053Z 19007KT 21/13 A3018 RMK A01 T02090127  RH  059%=      5-min Rain = 0
KWA1 092054Z 21006KT 21/13 A3018 RMK A01 T02070128  RH  061%=      5-min Rain = 0
KWA1 092055Z 21008KT 21/13 A3018 RMK A01 T02070125  RH  059%=      5-min Rain = 0
KWA1 092056Z 20007KT 21/12 A3018 RMK A01 T02060123  RH  059%=      5-min Rain = 0
KWA1 092057Z 19007KT 21/13 A3018 RMK A01 T02050126  RH  060%=      5-min Rain = 0
KWA1 092058Z 21006KT 21/13 A3018 RMK A01 T02050126  RH  060%=      5-min Rain = 0
KWA1 092059Z 23006KT 21/13 A3018 RMK A01 T02070129  RH  061%=      5-min Rain = 0
KWA1 092100Z 22007KT 21/13 A3018 RMK A01 T02080125  RH  059%=      5-min Rain = 0
KWA1 092101Z 22006KT 21/13 A3017 RMK A01 T02060126  RH  060%=      5-min Rain = 0
KWA1 092102Z 24006KT 21/13 A3017 RMK A01 T02060125  RH  060%=      5-min Rain = 0
KWA1 092103Z 21005KT 21/13 A3017 RMK A01 T02070127  RH  060%=      5-min Rain = 0
KWA1 092104Z 20005KT 21/13 A3017 RMK A01 T02070127  RH  060%=      5-min Rain = 0
KWA1 092105Z 19004KT 21/13 A3017 RMK A01 T02070127  RH  060%=      5-min Rain = 0
KWA1 092106Z 21004KT 21/13 A3017 RMK A01 T02060126  RH  060%=      5-min Rain = 0
KWA1 092107Z 19006KT 21/13 A3017 RMK A01 T02070130  RH  061%=      5-min Rain = 0
KWA1 092108Z 19005KT 21/13 A3017 RMK A01 T02080127  RH  060%=      5-min Rain = 0
KWA1 092109Z 18006KT 21/13 A3017 RMK A01 T02080130  RH  061%=      5-min Rain = 0
KWA1 092110Z 19006KT 21/13 A3017 RMK A01 T02100133  RH  061%=      5-min Rain = 0
KWA1 092111Z 19006KT 21/13 A3017 RMK A01 T02100130  RH  060%=      5-min Rain = 0
KWA1 092112Z 19006KT 21/13 A3017 RMK A01 T02090129  RH  060%=      5-min Rain = 0
KWA1 092113Z 17004KT 21/13 A3017 RMK A01 T02070126  RH  060%=      5-min Rain = 0
KWA1 092114Z 17005KT 21/13 A3017 RMK A01 T02070128  RH  060%=      5-min Rain = 0
KWA1 092115Z 18007KT 21/13 A3017 RMK A01 T02080127  RH  060%=      5-min Rain = 0
KWA1 092116Z 20008KT 21/13 A3017 RMK A01 T02080129  RH  060%=      5-min Rain = 0
KWA1 092117Z 20008KT 21/12 A3017 RMK A01 T02080124  RH  059%=      5-min Rain = 0
KWA1 092118Z 19006KT 21/13 A3017 RMK A01 T02060126  RH  060%=      5-min Rain = 0
KWA1 092119Z 21006KT 21/13 A3017 RMK A01 T02060126  RH  060%=      5-min Rain = 0
KWA1 092120Z 22007KT 21/13 A3017 RMK A01 T02060127  RH  060%=      5-min Rain = 0
KWA1 092121Z 24005KT 21/13 A3017 RMK A01 T02070127  RH  060%=      5-min Rain = 0
KWA1 092122Z 23005KT 21/13 A3017 RMK A01 T02070127  RH  060%=      5-min Rain = 0
KWA1 092123Z 19005KT 21/13 A3017 RMK A01 T02070128  RH  060%=      5-min Rain = 0
KWA1 092124Z 20005KT 21/13 A3017 RMK A01 T02080126  RH  060%=      5-min Rain = 0
KWA1 092125Z 19005KT 21/13 A3017 RMK A01 T02070126  RH  060%=      5-min Rain = 0
KWA1 092126Z 19004KT 21/13 A3017 RMK A01 T02070127  RH  060%=      5-min Rain = 0
KWA1 092127Z 19006KT 21/13 A3017 RMK A01 T02070126  RH  060%=      5-min Rain = 0
KWA1 092128Z 19006KT 21/13 A3017 RMK A01 T02080128  RH  060%=      5-min Rain = 0
KWA1 092129Z 22008KT 21/13 A3017 RMK A01 T02080128  RH  060%=      5-min Rain = 0
KWA1 092130Z 21008KT 21/13 A3017 RMK A01 T02080128  RH  060%=      5-min Rain = 0
KWA1 092131Z 22005KT 21/13 A3017 RMK A01 T02070126  RH  060%=      5-min Rain = 0
KWA1 092132Z 23006KT 21/13 A3016 RMK A01 T02080129  RH  060%=      5-min Rain = 0
KWA1 092133Z 23005KT 21/13 A3016 RMK A01 T02090126  RH  059%=      5-min Rain = 0
KWA1 092134Z 23007KT 21/13 A3016 RMK A01 T02070125  RH  059%=      5-min Rain = 0
KWA1 092135Z 23007KT 21/13 A3016 RMK A01 T02070127  RH  060%=      5-min Rain = 0
KWA1 092136Z 23005KT 21/13 A3016 RMK A01 T02070128  RH  060%=      5-min Rain = 0
KWA1 092137Z 20005KT 21/13 A3016 RMK A01 T02080131  RH  061%=      5-min Rain = 0
KWA1 092138Z 20008KT 21/13 A3016 RMK A01 T02090129  RH  060%=      5-min Rain = 0
KWA1 092139Z 22006KT 21/13 A3016 RMK A01 T02090128  RH  060%=      5-min Rain = 0
KWA1 092140Z 21006KT 21/13 A3016 RMK A01 T02090128  RH  060%=      5-min Rain = 0
KWA1 092141Z 21006KT 21/13 A3016 RMK A01 T02100129  RH  060%=      5-min Rain = 0
KWA1 092142Z 20004KT 21/13 A3016 RMK A01 T02090125  RH  059%=      5-min Rain = 0
KWA1 092143Z 20004KT 21/13 A3016 RMK A01 T02080127  RH  060%=      5-min Rain = 0
KWA1 092144Z 20006KT 21/13 A3016 RMK A01 T02080128  RH  060%=      5-min Rain = 0
KWA1 092145Z 19006KT 21/13 A3016 RMK A01 T02090129  RH  060%=      5-min Rain = 0
KWA1 092146Z 22006KT 21/13 A3016 RMK A01 T02100130  RH  060%=      5-min Rain = 0
KWA1 092147Z 23004KT 21/13 A3016 RMK A01 T02100127  RH  059%=      5-min Rain = 0
KWA1 092148Z 22005KT 21/13 A3016 RMK A01 T02100130  RH  060%=      5-min Rain = 0
KWA1 092149Z 23006KT 21/13 A3016 RMK A01 T02110130  RH  060%=      5-min Rain = 0
KWA1 092150Z 21005KT 21/13 A3016 RMK A01 T02110126  RH  058%=      5-min Rain = 0
KWA1 092151Z 23005KT 21/13 A3016 RMK A01 T02110128  RH  059%=      5-min Rain = 0
KWA1 092152Z 23005KT 21/13 A3016 RMK A01 T02110127  RH  059%=      5-min Rain = 0
KWA1 092153Z 24005KT 21/13 A3016 RMK A01 T02110129  RH  059%=      5-min Rain = 0
KWA1 092154Z 21005KT 21/13 A3016 RMK A01 T02110128  RH  059%=      5-min Rain = 0
KWA1 092155Z 21004KT 21/13 A3016 RMK A01 T02110128  RH  059%=      5-min Rain = 0
KWA1 092156Z 23005KT 21/13 A3016 RMK A01 T02110127  RH  059%=      5-min Rain = 0
KWA1 092157Z 24003KT 21/13 A3016 RMK A01 T02110127  RH  059%=      5-min Rain = 0
KWA1 092158Z 23003KT 21/13 A3016 RMK A01 T02110131  RH  060%=      5-min Rain = 0
KWA1 092159Z 24003KT 21/13 A3016 RMK A01 T02120129  RH  059%=      5-min Rain = 0
KWA1 092200Z 24005KT 21/13 A3016 RMK A01 T02130128  RH  058%=      5-min Rain = 0
KWA1 092201Z 24004KT 21/13 A3016 RMK A01 T02120127  RH  058%=      5-min Rain = 0
KWA1 092202Z 22004KT 21/13 A3016 RMK A01 T02110128  RH  059%=      5-min Rain = 0
KWA1 092203Z 20002KT 21/13 A3016 RMK A01 T02110126  RH  058%=      5-min Rain = 0
KWA1 092204Z 17003KT 21/13 A3016 RMK A01 T02100128  RH  059%=      5-min Rain = 0
KWA1 092205Z 18003KT 21/13 A3016 RMK A01 T02110126  RH  058%=      5-min Rain = 0
KWA1 092206Z 20003KT 21/13 A3016 RMK A01 T02120127  RH  058%=      5-min Rain = 0
KWA1 092207Z 19006KT 21/13 A3016 RMK A01 T02130128  RH  059%=      5-min Rain = 0
KWA1 092208Z 18006KT 21/13 A3016 RMK A01 T02130130  RH  059%=      5-min Rain = 0
KWA1 092209Z 18005KT 21/12 A3016 RMK A01 T02120124  RH  057%=      5-min Rain = 0
KWA1 092210Z 18006KT 21/13 A3016 RMK A01 T02100127  RH  059%=      5-min Rain = 0
KWA1 092211Z 19005KT 21/13 A3016 RMK A01 T02100127  RH  059%=      5-min Rain = 0
KWA1 092212Z 20004KT 21/13 A3016 RMK A01 T02100127  RH  059%=      5-min Rain = 0
KWA1 092213Z 21006KT 21/13 A3016 RMK A01 T02100128  RH  059%=      5-min Rain = 0
KWA1 092214Z 22004KT 21/13 A3016 RMK A01 T02110128  RH  059%=      5-min Rain = 0
KWA1 092215Z 22003KT 21/13 A3015 RMK A01 T02110126  RH  058%=      5-min Rain = 0
KWA1 092216Z 22003KT 21/13 A3015 RMK A01 T02110125  RH  058%=      5-min Rain = 0
KWA1 092217Z 23003KT 21/13 A3015 RMK A01 T02120126  RH  058%=      5-min Rain = 0
KWA1 092218Z 24003KT 21/13 A3015 RMK A01 T02110125  RH  058%=      5-min Rain = 0
KWA1 092219Z 25003KT 21/13 A3015 RMK A01 T02110126  RH  058%=      5-min Rain = 0
KWA1 092220Z 24003KT 21/13 A3015 RMK A01 T02120129  RH  059%=      5-min Rain = 0
KWA1 092221Z 23004KT 21/13 A3015 RMK A01 T02130127  RH  058%=      5-min Rain = 0
KWA1 092222Z 22004KT 21/13 A3015 RMK A01 T02130125  RH  057%=      5-min Rain = 0
KWA1 092223Z 20004KT 21/13 A3015 RMK A01 T02120126  RH  058%=      5-min Rain = 0
KWA1 092224Z 18003KT 21/13 A3015 RMK A01 T02110125  RH  058%=      5-min Rain = 0
KWA1 092225Z 21004KT 21/13 A3015 RMK A01 T02120129  RH  059%=      5-min Rain = 0
KWA1 092226Z 23003KT 21/13 A3015 RMK A01 T02120126  RH  058%=      5-min Rain = 0
KWA1 092227Z 22002KT 21/13 A3015 RMK A01 T02120126  RH  058%=      5-min Rain = 0
KWA1 092228Z 21003KT 21/13 A3015 RMK A01 T02120127  RH  058%=      5-min Rain = 0
KWA1 092229Z 19004KT 21/13 A3015 RMK A01 T02120128  RH  058%=      5-min Rain = 0
KWA1 092230Z 19002KT 21/13 A3015 RMK A01 T02130130  RH  059%=      5-min Rain = 0
KWA1 092231Z 18004KT 21/13 A3015 RMK A01 T02130131  RH  059%=      5-min Rain = 0
KWA1 092232Z 21004KT 21/13 A3015 RMK A01 T02140130  RH  059%=      5-min Rain = 0
KWA1 092233Z 21003KT 21/13 A3015 RMK A01 T02140129  RH  058%=      5-min Rain = 0
KWA1 092234Z 22004KT 21/13 A3015 RMK A01 T02140127  RH  058%=      5-min Rain = 0
KWA1 092235Z 21004KT 21/13 A3015 RMK A01 T02140127  RH  058%=      5-min Rain = 0
KWA1 092236Z 20003KT 21/13 A3015 RMK A01 T02130128  RH  058%=      5-min Rain = 0
KWA1 092237Z 20003KT 21/13 A3015 RMK A01 T02130129  RH  059%=      5-min Rain = 0
KWA1 092238Z 20003KT 21/13 A3015 RMK A01 T02130128  RH  058%=      5-min Rain = 0
KWA1 092239Z 19002KT 21/13 A3015 RMK A01 T02130127  RH  058%=      5-min Rain = 0
KWA1 092240Z 18002KT 21/13 A3015 RMK A01 T02130128  RH  058%=      5-min Rain = 0
KWA1 092241Z 17003KT 21/13 A3015 RMK A01 T02140130  RH  059%=      5-min Rain = 0
KWA1 092242Z 17003KT 21/13 A3015 RMK A01 T02140130  RH  059%=      5-min Rain = 0
KWA1 092243Z 19003KT 21/13 A3015 RMK A01 T02130130  RH  059%=      5-min Rain = 0
KWA1 092244Z 20002KT 21/13 A3015 RMK A01 T02140127  RH  057%=      5-min Rain = 0
KWA1 092245Z 18002KT 21/13 A3015 RMK A01 T02140126  RH  057%=      5-min Rain = 0
KWA1 092246Z 19002KT 21/13 A3014 RMK A01 T02140128  RH  058%=      5-min Rain = 0
KWA1 092247Z 17003KT 22/13 A3014 RMK A01 T02150128  RH  058%=      5-min Rain = 0
KWA1 092248Z 19004KT 22/13 A3014 RMK A01 T02150128  RH  058%=      5-min Rain = 0
KWA1 092249Z 20002KT 21/13 A3014 RMK A01 T02140128  RH  058%=      5-min Rain = 0
KWA1 092250Z 19002KT 21/13 A3014 RMK A01 T02130130  RH  059%=      5-min Rain = 0
KWA1 092251Z 20002KT 21/13 A3014 RMK A01 T02130128  RH  058%=      5-min Rain = 0
KWA1 092252Z 20002KT 21/13 A3014 RMK A01 T02130127  RH  058%=      5-min Rain = 0
KWA1 092253Z 22002KT 21/13 A3014 RMK A01 T02130128  RH  058%=      5-min Rain = 0
KWA1 092254Z 23003KT 21/13 A3014 RMK A01 T02130128  RH  058%=      5-min Rain = 0
KWA1 092255Z 23001KT 21/13 A3014 RMK A01 T02130129  RH  059%=      5-min Rain = 0
KWA1 092256Z 22001KT 21/13 A3014 RMK A01 T02140129  RH  058%=      5-min Rain = 0
KWA1 092257Z 22001KT 21/13 A3014 RMK A01 T02140128  RH  058%=      5-min Rain = 0
KWA1 092258Z 18000KT 21/13 A3014 RMK A01 T02140129  RH  058%=      5-min Rain = 0
KWA1 092259Z 18001KT 21/13 A3014 RMK A01 T02140128  RH  058%=      5-min Rain = 0
KWA1 092300Z 19000KT 21/13 A3014 RMK A01 T02140128  RH  058%=      5-min Rain = 0
KWA1 092301Z 22001KT 22/13 A3014 RMK A01 T02150129  RH  058%=      5-min Rain = 0
KWA1 092302Z 19001KT 21/13 A3014 RMK A01 T02140130  RH  058%=      5-min Rain = 0
KWA1 092303Z 17001KT 21/13 A3014 RMK A01 T02140130  RH  059%=      5-min Rain = 0
KWA1 092304Z 17001KT 21/13 A3014 RMK A01 T02130128  RH  058%=      5-min Rain = 0
KWA1 092305Z 21001KT 21/13 A3014 RMK A01 T02130128  RH  058%=      5-min Rain = 0
KWA1 092306Z 20002KT 21/13 A3014 RMK A01 T02120129  RH  059%=      5-min Rain = 0
KWA1 092307Z 19002KT 21/13 A3014 RMK A01 T02120130  RH  060%=      5-min Rain = 0
KWA1 092308Z 19002KT 21/13 A3014 RMK A01 T02110132  RH  061%=      5-min Rain = 0
KWA1 092309Z 19002KT 21/13 A3014 RMK A01 T02090131  RH  061%=      5-min Rain = 0
KWA1 092310Z 19003KT 21/13 A3014 RMK A01 T02080131  RH  061%=      5-min Rain = 0
KWA1 092311Z 19003KT 21/13 A3014 RMK A01 T02080132  RH  062%=      5-min Rain = 0
KWA1 092312Z 19003KT 21/13 A3014 RMK A01 T02070133  RH  063%=      5-min Rain = 0
KWA1 092313Z 19003KT 21/13 A3014 RMK A01 T02060134  RH  063%=      5-min Rain = 0
KWA1 092314Z 19003KT 21/13 A3014 RMK A01 T02050132  RH  063%=      5-min Rain = 0
KWA1 092315Z 19003KT 21/13 A3014 RMK A01 T02050132  RH  063%=      5-min Rain = 0
KWA1 092316Z 18002KT 21/13 A3014 RMK A01 T02050134  RH  063%=      5-min Rain = 0
KWA1 092317Z 18002KT 21/14 A3014 RMK A01 T02050135  RH  064%=      5-min Rain = 0
KWA1 092318Z 18003KT 21/14 A3014 RMK A01 T02060135  RH  064%=      5-min Rain = 0
KWA1 092319Z 18002KT 21/13 A3014 RMK A01 T02060134  RH  064%=      5-min Rain = 0
KWA1 092320Z 16002KT 21/14 A3014 RMK A01 T02060135  RH  064%=      5-min Rain = 0
KWA1 092321Z 15002KT 21/13 A3014 RMK A01 T02050133  RH  063%=      5-min Rain = 0
KWA1 092322Z 16002KT 20/13 A3014 RMK A01 T02040133  RH  064%=      5-min Rain = 0
KWA1 092323Z 17002KT 20/13 A3014 RMK A01 T02030133  RH  064%=      5-min Rain = 0
KWA1 092324Z 18002KT 20/13 A3014 RMK A01 T02030133  RH  064%=      5-min Rain = 0
KWA1 092325Z 17003KT 20/13 A3014 RMK A01 T02020133  RH  064%=      5-min Rain = 0
KWA1 092326Z 17002KT 20/13 A3014 RMK A01 T02020132  RH  064%=      5-min Rain = 0
KWA1 092327Z 17003KT 20/13 A3014 RMK A01 T02020132  RH  064%=      5-min Rain = 0
KWA1 092328Z 17002KT 20/13 A3014 RMK A01 T02010132  RH  064%=      5-min Rain = 0
KWA1 092329Z 17002KT 20/14 A3014 RMK A01 T02010135  RH  066%=      5-min Rain = 0
KWA1 092330Z 17002KT 20/14 A3014 RMK A01 T02010135  RH  066%=      5-min Rain = 0
KWA1 092331Z 18002KT 20/13 A3014 RMK A01 T02000134  RH  066%=      5-min Rain = 0
KWA1 092332Z 18003KT 20/13 A3014 RMK A01 T01990134  RH  066%=      5-min Rain = 0
KWA1 092333Z 18003KT 20/14 A3014 RMK A01 T01990135  RH  066%=      5-min Rain = 0
KWA1 092334Z 17003KT 20/13 A3014 RMK A01 T01990134  RH  066%=      5-min Rain = 0
KWA1 092335Z 16002KT 20/13 A3014 RMK A01 T01970132  RH  066%=      5-min Rain = 0
KWA1 092336Z 16002KT 20/13 A3014 RMK A01 T01970132  RH  066%=      5-min Rain = 0
KWA1 092337Z 16003KT 20/13 A3014 RMK A01 T01960132  RH  067%=      5-min Rain = 0
KWA1 092338Z 16003KT 19/13 A3014 RMK A01 T01940132  RH  067%=      5-min Rain = 0
KWA1 092339Z 16003KT 19/13 A3014 RMK A01 T01940132  RH  067%=      5-min Rain = 0
KWA1 092340Z 15002KT 19/13 A3014 RMK A01 T01930132  RH  068%=      5-min Rain = 0
KWA1 092341Z 15002KT 19/13 A3014 RMK A01 T01920132  RH  068%=      5-min Rain = 0
KWA1 092342Z 15003KT 19/13 A3014 RMK A01 T01910131  RH  068%=      5-min Rain = 0
KWA1 092343Z 16003KT 19/13 A3014 RMK A01 T01900131  RH  069%=      5-min Rain = 0
KWA1 092344Z 15003KT 19/13 A3014 RMK A01 T01890132  RH  069%=      5-min Rain = 0
KWA1 092345Z 15003KT 19/13 A3014 RMK A01 T01890133  RH  070%=      5-min Rain = 0
KWA1 092346Z 16003KT 19/13 A3014 RMK A01 T01890132  RH  070%=      5-min Rain = 0
KWA1 092347Z 16003KT 19/13 A3014 RMK A01 T01880132  RH  070%=      5-min Rain = 0
KWA1 092348Z 16003KT 19/13 A3014 RMK A01 T01880131  RH  070%=      5-min Rain = 0
KWA1 092349Z 16003KT 19/13 A3014 RMK A01 T01870131  RH  070%=      5-min Rain = 0
KWA1 092350Z 17003KT 19/13 A3014 RMK A01 T01860131  RH  070%=      5-min Rain = 0
KWA1 092351Z 17003KT 19/13 A3014 RMK A01 T01850131  RH  071%=      5-min Rain = 0
KWA1 092352Z 17004KT 19/13 A3014 RMK A01 T01850131  RH  071%=      5-min Rain = 0
KWA1 092353Z 16004KT 18/13 A3014 RMK A01 T01840131  RH  071%=      5-min Rain = 0
KWA1 092354Z 17005KT 18/13 A3014 RMK A01 T01830131  RH  072%=      5-min Rain = 0
KWA1 092355Z 17005KT 18/13 A3014 RMK A01 T01810131  RH  072%=      5-min Rain = 0
KWA1 092356Z 17005KT 18/13 A3014 RMK A01 T01790130  RH  073%=      5-min Rain = 0
KWA1 092357Z 17005KT 18/13 A3014 RMK A01 T01770130  RH  074%=      5-min Rain = 0
KWA1 092358Z 17005KT 18/13 A3014 RMK A01 T01760130  RH  074%=      5-min Rain = 0
KWA1 092359Z 16005KT 18/13 A3014 RMK A01 T01750130  RH  075%=      5-min Rain = 0
KWA1 100000Z 16005KT 17/13 A3014 RMK A01 T01740130  RH  075%=      5-min Rain = 0
KWA1 100001Z 16005KT 17/13 A3014 RMK A01 T01730131  RH  076%=      5-min Rain = 0
KWA1 100002Z 17006KT 17/13 A3014 RMK A01 T01720131  RH  077%=      5-min Rain = 0
KWA1 100003Z 17006KT 17/13 A3014 RMK A01 T01710131  RH  077%=      5-min Rain = 0
KWA1 100004Z 17006KT 17/13 A3014 RMK A01 T01700131  RH  077%=      5-min Rain = 0
KWA1 100005Z 17006KT 17/13 A3014 RMK A01 T01700130  RH  078%=      5-min Rain = 0
KWA1 100006Z 17006KT 17/13 A3014 RMK A01 T01690130  RH  078%=      5-min Rain = 0
KWA1 100007Z 17006KT 17/13 A3014 RMK A01 T01690130  RH  078%=      5-min Rain = 0
KWA1 100008Z 17006KT 17/13 A3014 RMK A01 T01680130  RH  078%=      5-min Rain = 0
KWA1 100009Z 18006KT 17/13 A3014 RMK A01 T01680130  RH  078%=      5-min Rain = 0
KWA1 100010Z 18006KT 17/13 A3014 RMK A01 T01680130  RH  078%=      5-min Rain = 0
KWA1 100011Z 18006KT 17/13 A3014 RMK A01 T01680131  RH  079%=      5-min Rain = 0
KWA1 100012Z 18006KT 17/13 A3014 RMK A01 T01670131  RH  079%=      5-min Rain = 0
KWA1 100013Z 18006KT 17/13 A3014 RMK A01 T01670131  RH  079%=      5-min Rain = 0
KWA1 100014Z 18006KT 17/13 A3014 RMK A01 T01660131  RH  080%=      5-min Rain = 0
KWA1 100015Z 18006KT 17/13 A3014 RMK A01 T01650131  RH  080%=      5-min Rain = 0
KWA1 100016Z 18007KT 17/13 A3014 RMK A01 T01650131  RH  080%=      5-min Rain = 0
KWA1 100017Z 18007KT 16/13 A3014 RMK A01 T01640131  RH  080%=      5-min Rain = 0
KWA1 100018Z 18007KT 17/13 A3014 RMK A01 T01650131  RH  081%=      5-min Rain = 0
KWA1 100019Z 18007KT 16/13 A3014 RMK A01 T01640131  RH  081%=      5-min Rain = 0
KWA1 100020Z 18007KT 17/13 A3014 RMK A01 T01650131  RH  081%=      5-min Rain = 0
KWA1 100021Z 18007KT 16/13 A3014 RMK A01 T01640130  RH  080%=      5-min Rain = 0
KWA1 100022Z 18006KT 16/13 A3014 RMK A01 T01640130  RH  080%=      5-min Rain = 0
KWA1 100023Z 19007KT 16/13 A3014 RMK A01 T01640129  RH  080%=      5-min Rain = 0
KWA1 100024Z 19007KT 16/13 A3014 RMK A01 T01640129  RH  080%=      5-min Rain = 0
KWA1 100025Z 19007KT 16/13 A3014 RMK A01 T01640129  RH  080%=      5-min Rain = 0
KWA1 100026Z 18007KT 16/13 A3014 RMK A01 T01630128  RH  080%=      5-min Rain = 0
KWA1 100027Z 18007KT 16/13 A3014 RMK A01 T01630128  RH  080%=      5-min Rain = 0
KWA1 100028Z 19007KT 16/13 A3014 RMK A01 T01630128  RH  080%=      5-min Rain = 0
KWA1 100029Z 19007KT 16/13 A3014 RMK A01 T01630128  RH  080%=      5-min Rain = 0
KWA1 100030Z 19007KT 16/13 A3014 RMK A01 T01630128  RH  080%=      5-min Rain = 0
KWA1 100031Z 19007KT 16/13 A3014 RMK A01 T01620127  RH  080%=      5-min Rain = 0
KWA1 100032Z 18007KT 16/13 A3014 RMK A01 T01620127  RH  080%=      5-min Rain = 0
KWA1 100033Z 18007KT 16/13 A3014 RMK A01 T01620127  RH  080%=      5-min Rain = 0
KWA1 100034Z 19008KT 16/13 A3014 RMK A01 T01610127  RH  080%=      5-min Rain = 0
KWA1 100035Z 19007KT 16/13 A3014 RMK A01 T01610127  RH  080%=      5-min Rain = 0
KWA1 100036Z 19008KT 16/13 A3014 RMK A01 T01610127  RH  080%=      5-min Rain = 0
KWA1 100037Z 19008KT 16/13 A3014 RMK A01 T01610127  RH  080%=      5-min Rain = 0
KWA1 100038Z 19007KT 16/13 A3014 RMK A01 T01620127  RH  079%=      5-min Rain = 0
KWA1 100039Z 19007KT 16/13 A3014 RMK A01 T01630127  RH  079%=      5-min Rain = 0
KWA1 100040Z 19007KT 16/13 A3014 RMK A01 T01630127  RH  079%=      5-min Rain = 0
KWA1 100041Z 19007KT 16/13 A3014 RMK A01 T01630127  RH  080%=      5-min Rain = 0
KWA1 100042Z 18007KT 16/13 A3014 RMK A01 T01620127  RH  080%=      5-min Rain = 0
KWA1 100043Z 17006KT 16/13 A3014 RMK A01 T01620127  RH  080%=      5-min Rain = 0
KWA1 100044Z 18007KT 16/13 A3014 RMK A01 T01600125  RH  080%=      5-min Rain = 0
KWA1 100045Z 18006KT 16/12 A3014 RMK A01 T01580124  RH  080%=      5-min Rain = 0
KWA1 100046Z 17006KT 16/12 A3014 RMK A01 T01570124  RH  081%=      5-min Rain = 0
KWA1 100047Z 17006KT 16/12 A3014 RMK A01 T01550123  RH  082%=      5-min Rain = 0
KWA1 100048Z 17006KT 15/12 A3014 RMK A01 T01540124  RH  082%=      5-min Rain = 0
KWA1 100049Z 18006KT 15/12 A3014 RMK A01 T01530124  RH  083%=      5-min Rain = 0
KWA1 100050Z 18006KT 15/12 A3014 RMK A01 T01530124  RH  083%=      5-min Rain = 0
KWA1 100051Z 18006KT 15/12 A3014 RMK A01 T01520124  RH  084%=      5-min Rain = 0
KWA1 100052Z 18006KT 15/12 A3014 RMK A01 T01520124  RH  084%=      5-min Rain = 0
KWA1 100053Z 17007KT 15/13 A3014 RMK A01 T01520125  RH  084%=      5-min Rain = 0
KWA1 100054Z 18006KT 15/13 A3014 RMK A01 T01510125  RH  084%=      5-min Rain = 0
KWA1 100055Z 18006KT 15/13 A3014 RMK A01 T01510125  RH  084%=      5-min Rain = 0
KWA1 100056Z 18005KT 15/13 A3014 RMK A01 T01510125  RH  085%=      5-min Rain = 0
KWA1 100057Z 18005KT 15/13 A3015 RMK A01 T01510125  RH  084%=      5-min Rain = 0
KWA1 100058Z 18006KT 15/13 A3015 RMK A01 T01510125  RH  084%=      5-min Rain = 0
KWA1 100059Z 18006KT 15/12 A3015 RMK A01 T01500124  RH  084%=      5-min Rain = 0
KWA1 100100Z 18006KT 15/12 A3015 RMK A01 T01500124  RH  084%=      5-min Rain = 0
KWA1 100101Z 18006KT 15/12 A3015 RMK A01 T01490123  RH  085%=      5-min Rain = 0
KWA1 100102Z 18006KT 15/12 A3015 RMK A01 T01490124  RH  085%=      5-min Rain = 0
KWA1 100103Z 18006KT 15/12 A3014 RMK A01 T01490124  RH  085%=      5-min Rain = 0
KWA1 100104Z 18006KT 15/12 A3014 RMK A01 T01480123  RH  085%=      5-min Rain = 0
KWA1 100105Z 19006KT 15/12 A3014 RMK A01 T01480123  RH  085%=      5-min Rain = 0
KWA1 100106Z 19006KT 15/12 A3014 RMK A01 T01480123  RH  085%=      5-min Rain = 0
KWA1 100107Z 19006KT 15/12 A3015 RMK A01 T01480124  RH  086%=      5-min Rain = 0
KWA1 100108Z 19006KT 15/12 A3015 RMK A01 T01480124  RH  086%=      5-min Rain = 0
KWA1 100109Z 19006KT 15/12 A3015 RMK A01 T01480124  RH  086%=      5-min Rain = 0
KWA1 100110Z 19006KT 15/12 A3015 RMK A01 T01480123  RH  085%=      5-min Rain = 0
KWA1 100111Z 19006KT 15/12 A3015 RMK A01 T01470123  RH  085%=      5-min Rain = 0
KWA1 100112Z 19006KT 15/12 A3015 RMK A01 T01480124  RH  085%=      5-min Rain = 0
KWA1 100113Z 19006KT 15/12 A3014 RMK A01 T01480123  RH  085%=      5-min Rain = 0
KWA1 100114Z 19006KT 15/12 A3014 RMK A01 T01490124  RH  085%=      5-min Rain = 0
KWA1 100115Z 19006KT 15/12 A3015 RMK A01 T01490124  RH  085%=      5-min Rain = 0
KWA1 100116Z 18006KT 15/12 A3015 RMK A01 T01490124  RH  085%=      5-min Rain = 0
KWA1 100117Z 19006KT 15/12 A3015 RMK A01 T01480124  RH  085%=      5-min Rain = 0
KWA1 100118Z 19006KT 15/12 A3015 RMK A01 T01480124  RH  085%=      5-min Rain = 0
KWA1 100119Z 19006KT 15/12 A3015 RMK A01 T01480124  RH  085%=      5-min Rain = 0
KWA1 100120Z 19006KT 15/12 A3015 RMK A01 T01480124  RH  085%=      5-min Rain = 0
KWA1 100121Z 18006KT 15/12 A3015 RMK A01 T01480123  RH  085%=      5-min Rain = 0
KWA1 100122Z 18006KT 15/12 A3015 RMK A01 T01470123  RH  086%=      5-min Rain = 0
KWA1 100123Z 18006KT 15/12 A3015 RMK A01 T01470123  RH  085%=      5-min Rain = 0
KWA1 100124Z 18006KT 15/12 A3015 RMK A01 T01470123  RH  086%=      5-min Rain = 0
KWA1 100125Z 18005KT 15/12 A3015 RMK A01 T01460122  RH  086%=      5-min Rain = 0
KWA1 100126Z 18005KT 15/12 A3015 RMK A01 T01460122  RH  086%=      5-min Rain = 0
KWA1 100127Z 18005KT 15/12 A3015 RMK A01 T01450122  RH  086%=      5-min Rain = 0
KWA1 100128Z 18005KT 14/12 A3015 RMK A01 T01440121  RH  086%=      5-min Rain = 0
KWA1 100129Z 18006KT 14/12 A3015 RMK A01 T01440121  RH  086%=      5-min Rain = 0
KWA1 100130Z 18006KT 14/12 A3015 RMK A01 T01430121  RH  086%=      5-min Rain = 0
KWA1 100131Z 18006KT 14/12 A3015 RMK A01 T01430121  RH  087%=      5-min Rain = 0
KWA1 100132Z 18006KT 14/12 A3015 RMK A01 T01430121  RH  087%=      5-min Rain = 0
KWA1 100133Z 18006KT 14/12 A3015 RMK A01 T01430121  RH  087%=      5-min Rain = 0
KWA1 100134Z 18006KT 14/12 A3015 RMK A01 T01430121  RH  087%=      5-min Rain = 0
KWA1 100135Z 18006KT 14/12 A3015 RMK A01 T01420121  RH  087%=      5-min Rain = 0
KWA1 100136Z 18006KT 14/12 A3015 RMK A01 T01420121  RH  087%=      5-min Rain = 0
KWA1 100137Z 19006KT 14/12 A3015 RMK A01 T01410121  RH  087%=      5-min Rain = 0
KWA1 100138Z 19006KT 14/12 A3015 RMK A01 T01410121  RH  088%=      5-min Rain = 0
KWA1 100139Z 19006KT 14/12 A3015 RMK A01 T01400121  RH  088%=      5-min Rain = 0
KWA1 100140Z 18006KT 14/12 A3015 RMK A01 T01400121  RH  088%=      5-min Rain = 0
KWA1 100141Z 18006KT 14/12 A3015 RMK A01 T01400121  RH  088%=      5-min Rain = 0
KWA1 100142Z 18006KT 14/12 A3015 RMK A01 T01390120  RH  088%=      5-min Rain = 0
KWA1 100143Z 19006KT 14/12 A3015 RMK A01 T01400121  RH  088%=      5-min Rain = 0
KWA1 100144Z 19006KT 14/12 A3015 RMK A01 T01390121  RH  089%=      5-min Rain = 0
KWA1 100145Z 19007KT 14/12 A3015 RMK A01 T01390121  RH  089%=      5-min Rain = 0
KWA1 100146Z 19007KT 14/12 A3015 RMK A01 T01400121  RH  089%=      5-min Rain = 0
KWA1 100147Z 19007KT 14/12 A3015 RMK A01 T01390121  RH  089%=      5-min Rain = 0
KWA1 100148Z 19007KT 14/12 A3015 RMK A01 T01400121  RH  088%=      5-min Rain = 0
KWA1 100149Z 19007KT 14/12 A3015 RMK A01 T01400120  RH  088%=      5-min Rain = 0
KWA1 100150Z 19007KT 14/12 A3015 RMK A01 T01390120  RH  088%=      5-min Rain = 0
KWA1 100151Z 19007KT 14/12 A3015 RMK A01 T01390120  RH  088%=      5-min Rain = 0
KWA1 100152Z 19007KT 14/12 A3015 RMK A01 T01390120  RH  088%=      5-min Rain = 0
KWA1 100153Z 19007KT 14/12 A3015 RMK A01 T01380119  RH  088%=      5-min Rain = 0
KWA1 100154Z 19006KT 14/12 A3015 RMK A01 T01380119  RH  088%=      5-min Rain = 0
KWA1 100155Z 19006KT 14/12 A3015 RMK A01 T01380119  RH  088%=      5-min Rain = 0
KWA1 100156Z 18007KT 14/12 A3015 RMK A01 T01380119  RH  088%=      5-min Rain = 0
KWA1 100157Z 19006KT 14/12 A3016 RMK A01 T01380119  RH  088%=      5-min Rain = 0
KWA1 100158Z 19006KT 14/12 A3016 RMK A01 T01380119  RH  088%=      5-min Rain = 0
KWA1 100159Z 19006KT 14/12 A3016 RMK A01 T01380119  RH  088%=      5-min Rain = 0
KWA1 100200Z 19006KT 14/12 A3016 RMK A01 T01380119  RH  088%=      5-min Rain = 0
KWA1 100201Z 18006KT 14/12 A3016 RMK A01 T01370119  RH  088%=      5-min Rain = 0
KWA1 100202Z 18006KT 14/12 A3016 RMK A01 T01370118  RH  088%=      5-min Rain = 0
KWA1 100203Z 18006KT 14/12 A3016 RMK A01 T01360118  RH  089%=      5-min Rain = 0
KWA1 100204Z 18006KT 14/12 A3016 RMK A01 T01360118  RH  089%=      5-min Rain = 0
KWA1 100205Z 18006KT 14/12 A3015 RMK A01 T01360118  RH  089%=      5-min Rain = 0
KWA1 100206Z 18006KT 14/12 A3015 RMK A01 T01350118  RH  089%=      5-min Rain = 0
KWA1 100207Z 18006KT 14/12 A3015 RMK A01 T01350117  RH  089%=      5-min Rain = 0
KWA1 100208Z 18006KT 13/12 A3016 RMK A01 T01340117  RH  089%=      5-min Rain = 0
KWA1 100209Z 18006KT 13/12 A3016 RMK A01 T01340117  RH  090%=      5-min Rain = 0
KWA1 100210Z 18006KT 13/12 A3016 RMK A01 T01340117  RH  090%=      5-min Rain = 0
KWA1 100211Z 18006KT 13/12 A3016 RMK A01 T01330117  RH  090%=      5-min Rain = 0
KWA1 100212Z 18006KT 13/12 A3016 RMK A01 T01330117  RH  090%=      5-min Rain = 0
KWA1 100213Z 18006KT 13/12 A3016 RMK A01 T01330117  RH  090%=      5-min Rain = 0
KWA1 100214Z 18006KT 13/12 A3016 RMK A01 T01330117  RH  090%=      5-min Rain = 0
KWA1 100215Z 18006KT 13/12 A3016 RMK A01 T01330117  RH  090%=      5-min Rain = 0
KWA1 100216Z 18006KT 13/12 A3016 RMK A01 T01330117  RH  090%=      5-min Rain = 0
KWA1 100217Z 18006KT 13/12 A3016 RMK A01 T01330117  RH  090%=      5-min Rain = 0
KWA1 100218Z 18006KT 13/12 A3016 RMK A01 T01320116  RH  090%=      5-min Rain = 0
KWA1 100219Z 18006KT 13/12 A3016 RMK A01 T01320116  RH  090%=      5-min Rain = 0
KWA1 100220Z 18006KT 13/12 A3016 RMK A01 T01310116  RH  090%=      5-min Rain = 0
KWA1 100221Z 18006KT 13/12 A3016 RMK A01 T01310116  RH  090%=      5-min Rain = 0
KWA1 100222Z 17005KT 13/12 A3016 RMK A01 T01310115  RH  090%=      5-min Rain = 0
KWA1 100223Z 17006KT 13/12 A3016 RMK A01 T01300115  RH  090%=      5-min Rain = 0
KWA1 100224Z 17006KT 13/12 A3016 RMK A01 T01300115  RH  091%=      5-min Rain = 0
KWA1 100225Z 17006KT 13/12 A3015 RMK A01 T01290115  RH  091%=      5-min Rain = 0
KWA1 100226Z 17006KT 13/11 A3015 RMK A01 T01290114  RH  091%=      5-min Rain = 0
KWA1 100227Z 17006KT 13/12 A3015 RMK A01 T01290115  RH  091%=      5-min Rain = 0
KWA1 100228Z 17006KT 13/12 A3015 RMK A01 T01290115  RH  091%=      5-min Rain = 0
KWA1 100229Z 18007KT 13/12 A3015 RMK A01 T01290115  RH  091%=      5-min Rain = 0
KWA1 100230Z 18007KT 13/12 A3015 RMK A01 T01290115  RH  091%=      5-min Rain = 0
KWA1 100231Z 18007KT 13/12 A3015 RMK A01 T01290115  RH  091%=      5-min Rain = 0
KWA1 100232Z 18007KT 13/12 A3015 RMK A01 T01290115  RH  091%=      5-min Rain = 0
KWA1 100233Z 18007KT 13/12 A3015 RMK A01 T01290115  RH  091%=      5-min Rain = 0
KWA1 100234Z 18006KT 13/12 A3015 RMK A01 T01290115  RH  091%=      5-min Rain = 0
KWA1 100235Z 18006KT 13/12 A3015 RMK A01 T01290115  RH  092%=      5-min Rain = 0
KWA1 100236Z 18006KT 13/12 A3015 RMK A01 T01290116  RH  092%=      5-min Rain = 0
KWA1 100237Z 18006KT 13/12 A3015 RMK A01 T01290115  RH  091%=      5-min Rain = 0
KWA1 100238Z 18006KT 13/12 A3015 RMK A01 T01290115  RH  091%=      5-min Rain = 0
KWA1 100239Z 18006KT 13/12 A3015 RMK A01 T01290115  RH  091%=      5-min Rain = 0
KWA1 100240Z 17006KT 13/12 A3015 RMK A01 T01290115  RH  091%=      5-min Rain = 0
KWA1 100241Z 17006KT 13/12 A3015 RMK A01 T01290115  RH  091%=      5-min Rain = 0
KWA1 100242Z 17006KT 13/11 A3015 RMK A01 T01280114  RH  091%=      5-min Rain = 0
KWA1 100243Z 17006KT 13/11 A3015 RMK A01 T01280114  RH  091%=      5-min Rain = 0
KWA1 100244Z 17006KT 13/11 A3015 RMK A01 T01280114  RH  091%=      5-min Rain = 0
KWA1 100245Z 17006KT 13/11 A3015 RMK A01 T01270114  RH  091%=      5-min Rain = 0
KWA1 100246Z 17006KT 13/11 A3015 RMK A01 T01270113  RH  091%=      5-min Rain = 0
KWA1 100247Z 18006KT 13/11 A3015 RMK A01 T01270113  RH  091%=      5-min Rain = 0
KWA1 100248Z 18006KT 13/11 A3015 RMK A01 T01260113  RH  091%=      5-min Rain = 0
KWA1 100249Z 18006KT 13/11 A3015 RMK A01 T01270113  RH  092%=      5-min Rain = 0
KWA1 100250Z 18006KT 13/11 A3015 RMK A01 T01260113  RH  092%=      5-min Rain = 0
KWA1 100251Z 18006KT 13/11 A3015 RMK A01 T01260113  RH  092%=      5-min Rain = 0
KWA1 100252Z 18006KT 13/11 A3015 RMK A01 T01260112  RH  092%=      5-min Rain = 0
KWA1 100253Z 18006KT 13/11 A3015 RMK A01 T01250112  RH  092%=      5-min Rain = 0
KWA1 100254Z 18006KT 13/11 A3015 RMK A01 T01250112  RH  092%=      5-min Rain = 0
KWA1 100255Z 18005KT 13/11 A3015 RMK A01 T01250112  RH  092%=      5-min Rain = 0
KWA1 100256Z 19005KT 12/11 A3015 RMK A01 T01240111  RH  092%=      5-min Rain = 0
KWA1 100257Z 19005KT 13/11 A3015 RMK A01 T01250113  RH  092%=      5-min Rain = 0
KWA1 100258Z 19005KT 12/11 A3015 RMK A01 T01240112  RH  092%=      5-min Rain = 0
KWA1 100259Z 19005KT 12/11 A3015 RMK A01 T01240111  RH  092%=      5-min Rain = 0
KWA1 100300Z 19005KT 12/11 A3015 RMK A01 T01230111  RH  092%=      5-min Rain = 0
KWA1 100301Z 19005KT 12/11 A3015 RMK A01 T01230111  RH  092%=      5-min Rain = 0
KWA1 100302Z 19005KT 12/11 A3015 RMK A01 T01230111  RH  092%=      5-min Rain = 0
KWA1 100303Z 18005KT 12/11 A3015 RMK A01 T01230111  RH  092%=      5-min Rain = 0
KWA1 100304Z 18005KT 12/11 A3015 RMK A01 T01230110  RH  092%=      5-min Rain = 0
KWA1 100305Z 18005KT 12/11 A3015 RMK A01 T01220110  RH  092%=      5-min Rain = 0
KWA1 100306Z 18006KT 12/11 A3015 RMK A01 T01220110  RH  092%=      5-min Rain = 0
KWA1 100307Z 18006KT 12/11 A3015 RMK A01 T01220110  RH  092%=      5-min Rain = 0
KWA1 100308Z 19006KT 12/11 A3015 RMK A01 T01210110  RH  093%=      5-min Rain = 0
KWA1 100309Z 19006KT 12/11 A3015 RMK A01 T01210110  RH  093%=      5-min Rain = 0
KWA1 100310Z 19006KT 12/11 A3015 RMK A01 T01210109  RH  093%=      5-min Rain = 0
KWA1 100311Z 19006KT 12/11 A3015 RMK A01 T01210110  RH  093%=      5-min Rain = 0
KWA1 100312Z 18006KT 12/11 A3015 RMK A01 T01210110  RH  093%=      5-min Rain = 0
KWA1 100313Z 18006KT 12/11 A3015 RMK A01 T01210110  RH  093%=      5-min Rain = 0
KWA1 100314Z 18006KT 12/11 A3015 RMK A01 T01220111  RH  093%=      5-min Rain = 0
KWA1 100315Z 18006KT 12/11 A3015 RMK A01 T01220111  RH  093%=      5-min Rain = 0
KWA1 100316Z 18006KT 12/11 A3015 RMK A01 T01220110  RH  093%=      5-min Rain = 0
KWA1 100317Z 18006KT 12/11 A3015 RMK A01 T01220110  RH  093%=      5-min Rain = 0
KWA1 100318Z 18006KT 12/11 A3015 RMK A01 T01220110  RH  092%=      5-min Rain = 0
KWA1 100319Z 18007KT 12/11 A3015 RMK A01 T01210109  RH  092%=      5-min Rain = 0
KWA1 100320Z 18007KT 12/11 A3015 RMK A01 T01210109  RH  092%=      5-min Rain = 0
KWA1 100321Z 19007KT 12/11 A3015 RMK A01 T01200108  RH  092%=      5-min Rain = 0
KWA1 100322Z 19007KT 12/11 A3015 RMK A01 T01210109  RH  093%=      5-min Rain = 0
KWA1 100323Z 19007KT 12/11 A3015 RMK A01 T01210110  RH  093%=      5-min Rain = 0
KWA1 100324Z 19007KT 12/11 A3015 RMK A01 T01210110  RH  093%=      5-min Rain = 0
KWA1 100325Z 19007KT 12/11 A3015 RMK A01 T01220111  RH  093%=      5-min Rain = 0
KWA1 100326Z 19007KT 12/11 A3015 RMK A01 T01220112  RH  093%=      5-min Rain = 0
KWA1 100327Z 19007KT 12/11 A3015 RMK A01 T01230112  RH  093%=      5-min Rain = 0
KWA1 100328Z 18007KT 12/11 A3015 RMK A01 T01230111  RH  093%=      5-min Rain = 0
KWA1 100329Z 18006KT 12/11 A3015 RMK A01 T01230111  RH  092%=      5-min Rain = 0
KWA1 100330Z 18006KT 12/11 A3015 RMK A01 T01230110  RH  092%=      5-min Rain = 0
KWA1 100331Z 18007KT 12/11 A3015 RMK A01 T01230110  RH  092%=      5-min Rain = 0
KWA1 100332Z 18007KT 12/11 A3015 RMK A01 T01220109  RH  092%=      5-min Rain = 0
KWA1 100333Z 18007KT 12/11 A3015 RMK A01 T01210109  RH  092%=      5-min Rain = 0
KWA1 100334Z 18007KT 12/11 A3015 RMK A01 T01210109  RH  092%=      5-min Rain = 0
KWA1 100335Z 18006KT 12/11 A3015 RMK A01 T01210109  RH  092%=      5-min Rain = 0
KWA1 100336Z 18006KT 12/11 A3015 RMK A01 T01210109  RH  093%=      5-min Rain = 0
KWA1 100337Z 18007KT 12/11 A3015 RMK A01 T01210109  RH  093%=      5-min Rain = 0
KWA1 100338Z 18007KT 12/11 A3015 RMK A01 T01200109  RH  093%=      5-min Rain = 0
KWA1 100339Z 18007KT 12/11 A3015 RMK A01 T01210110  RH  093%=      5-min Rain = 0
KWA1 100340Z 18006KT 12/11 A3015 RMK A01 T01210109  RH  093%=      5-min Rain = 0
KWA1 100341Z 18006KT 12/11 A3015 RMK A01 T01210110  RH  093%=      5-min Rain = 0
KWA1 100342Z 18006KT 12/11 A3015 RMK A01 T01210110  RH  093%=      5-min Rain = 0
KWA1 100343Z 18006KT 12/11 A3015 RMK A01 T01210110  RH  093%=      5-min Rain = 0
KWA1 100344Z 18006KT 12/11 A3015 RMK A01 T01220110  RH  093%=      5-min Rain = 0
KWA1 100345Z 18006KT 12/11 A3015 RMK A01 T01220110  RH  093%=      5-min Rain = 0
KWA1 100346Z 18006KT 12/11 A3015 RMK A01 T01210110  RH  093%=      5-min Rain = 0
KWA1 100347Z 18006KT 12/11 A3015 RMK A01 T01210109  RH  093%=      5-min Rain = 0
KWA1 100348Z 18007KT 12/11 A3015 RMK A01 T01210109  RH  092%=      5-min Rain = 0
KWA1 100349Z 17007KT 12/11 A3015 RMK A01 T01200108  RH  093%=      5-min Rain = 0
KWA1 100350Z 18007KT 12/11 A3015 RMK A01 T01200109  RH  093%=      5-min Rain = 0
KWA1 100351Z 18006KT 12/11 A3015 RMK A01 T01200109  RH  093%=      5-min Rain = 0
KWA1 100352Z 18006KT 12/11 A3015 RMK A01 T01200109  RH  093%=      5-min Rain = 0
KWA1 100353Z 18006KT 12/11 A3015 RMK A01 T01200109  RH  093%=      5-min Rain = 0
KWA1 100354Z 18006KT 12/11 A3015 RMK A01 T01200109  RH  093%=      5-min Rain = 0
KWA1 100355Z 19006KT 12/11 A3015 RMK A01 T01200109  RH  093%=      5-min Rain = 0
KWA1 100356Z 19006KT 12/11 A3015 RMK A01 T01200109  RH  093%=      5-min Rain = 0
KWA1 100357Z 20007KT 12/11 A3016 RMK A01 T01200110  RH  093%=      5-min Rain = 0
KWA1 100358Z 20007KT 12/11 A3016 RMK A01 T01210110  RH  093%=      5-min Rain = 0
KWA1 100359Z 19007KT 12/11 A3016 RMK A01 T01220111  RH  093%=      5-min Rain = 0
KWA1 100400Z 19006KT 12/11 A3016 RMK A01 T01230111  RH  092%=      5-min Rain = 0
KWA1 100401Z 19007KT 12/11 A3016 RMK A01 T01230110  RH  092%=      5-min Rain = 0
KWA1 100402Z 19007KT 12/11 A3016 RMK A01 T01230110  RH  091%=      5-min Rain = 0
KWA1 100403Z 19007KT 12/11 A3016 RMK A01 T01240110  RH  091%=      5-min Rain = 0
KWA1 100404Z 20006KT 12/11 A3016 RMK A01 T01240110  RH  091%=      5-min Rain = 0
KWA1 100405Z 20006KT 12/11 A3016 RMK A01 T01240110  RH  091%=      5-min Rain = 0
KWA1 100406Z 20006KT 13/11 A3016 RMK A01 T01250110  RH  091%=      5-min Rain = 0
KWA1 100407Z 21006KT 13/11 A3016 RMK A01 T01250110  RH  091%=      5-min Rain = 0
KWA1 100408Z 21007KT 13/11 A3016 RMK A01 T01250110  RH  091%=      5-min Rain = 0
KWA1 100409Z 21007KT 13/11 A3016 RMK A01 T01250110  RH  091%=      5-min Rain = 0
KWA1 100410Z 21006KT 13/11 A3016 RMK A01 T01260111  RH  091%=      5-min Rain = 0
KWA1 100411Z 21006KT 13/11 A3016 RMK A01 T01270112  RH  091%=      5-min Rain = 0
KWA1 100412Z 21006KT 13/11 A3016 RMK A01 T01280112  RH  090%=      5-min Rain = 0
KWA1 100413Z 21007KT 13/11 A3016 RMK A01 T01290113  RH  090%=      5-min Rain = 0
KWA1 100414Z 21007KT 13/12 A3016 RMK A01 T01310115  RH  090%=      5-min Rain = 0
KWA1 100415Z 21007KT 13/12 A3016 RMK A01 T01330116  RH  089%=      5-min Rain = 0
KWA1 100416Z 21007KT 13/12 A3016 RMK A01 T01340116  RH  089%=      5-min Rain = 0
KWA1 100417Z 21007KT 14/12 A3016 RMK A01 T01350116  RH  088%=      5-min Rain = 0
KWA1 100418Z 21007KT 14/12 A3016 RMK A01 T01370117  RH  088%=      5-min Rain = 0
KWA1 100419Z 21008KT 14/12 A3016 RMK A01 T01370116  RH  087%=      5-min Rain = 0
KWA1 100420Z 21008KT 14/12 A3016 RMK A01 T01380117  RH  087%=      5-min Rain = 0
KWA1 100421Z 21007KT 14/12 A3016 RMK A01 T01380116  RH  087%=      5-min Rain = 0
KWA1 100422Z 21008KT 14/12 A3016 RMK A01 T01390117  RH  087%=      5-min Rain = 0
KWA1 100423Z 21008KT 14/12 A3016 RMK A01 T01390117  RH  086%=      5-min Rain = 0
KWA1 100424Z 21008KT 14/12 A3016 RMK A01 T01390116  RH  086%=      5-min Rain = 0
KWA1 100425Z 21008KT 14/12 A3016 RMK A01 T01400116  RH  086%=      5-min Rain = 0
KWA1 100426Z 21007KT 14/12 A3016 RMK A01 T01390116  RH  086%=      5-min Rain = 0
KWA1 100427Z 21008KT 14/12 A3016 RMK A01 T01390116  RH  086%=      5-min Rain = 0
KWA1 100428Z 21007KT 14/12 A3016 RMK A01 T01390116  RH  086%=      5-min Rain = 0
KWA1 100429Z 21007KT 14/12 A3016 RMK A01 T01390116  RH  086%=      5-min Rain = 0
KWA1 100430Z 21007KT 14/12 A3016 RMK A01 T01390116  RH  086%=      5-min Rain = 0
KWA1 100431Z 22007KT 14/12 A3016 RMK A01 T01390116  RH  086%=      5-min Rain = 0
KWA1 100432Z 21007KT 14/12 A3016 RMK A01 T01380115  RH  086%=      5-min Rain = 0
KWA1 100433Z 21007KT 14/12 A3016 RMK A01 T01380116  RH  086%=      5-min Rain = 0
KWA1 100434Z 22007KT 14/12 A3016 RMK A01 T01380116  RH  086%=      5-min Rain = 0
KWA1 100435Z 21007KT 14/12 A3016 RMK A01 T01380116  RH  086%=      5-min Rain = 0
KWA1 100436Z 21007KT 14/12 A3016 RMK A01 T01370115  RH  086%=      5-min Rain = 0
KWA1 100437Z 21007KT 14/12 A3016 RMK A01 T01370115  RH  086%=      5-min Rain = 0
KWA1 100438Z 22007KT 14/12 A3016 RMK A01 T01370115  RH  087%=      5-min Rain = 0
KWA1 100439Z 21007KT 14/12 A3016 RMK A01 T01370115  RH  087%=      5-min Rain = 0
KWA1 100440Z 22007KT 14/12 A3016 RMK A01 T01370115  RH  086%=      5-min Rain = 0
KWA1 100441Z 21007KT 14/11 A3016 RMK A01 T01370114  RH  086%=      5-min Rain = 0
KWA1 100442Z 21007KT 14/11 A3016 RMK A01 T01360114  RH  087%=      5-min Rain = 0
KWA1 100443Z 21007KT 14/11 A3016 RMK A01 T01350114  RH  087%=      5-min Rain = 0
KWA1 100444Z 21007KT 14/11 A3016 RMK A01 T01350114  RH  087%=      5-min Rain = 0
KWA1 100445Z 21007KT 14/11 A3016 RMK A01 T01350114  RH  087%=      5-min Rain = 0
KWA1 100446Z 21006KT 14/11 A3015 RMK A01 T01350114  RH  087%=      5-min Rain = 0
KWA1 100447Z 21006KT 13/11 A3015 RMK A01 T01340114  RH  087%=      5-min Rain = 0
KWA1 100448Z 21006KT 13/11 A3015 RMK A01 T01340114  RH  087%=      5-min Rain = 0
KWA1 100449Z 21006KT 13/11 A3015 RMK A01 T01340113  RH  087%=      5-min Rain = 0
KWA1 100450Z 21006KT 13/11 A3015 RMK A01 T01340114  RH  088%=      5-min Rain = 0
KWA1 100451Z 21006KT 13/11 A3015 RMK A01 T01340113  RH  088%=      5-min Rain = 0
KWA1 100452Z 21006KT 13/11 A3015 RMK A01 T01330113  RH  088%=      5-min Rain = 0
KWA1 100453Z 21006KT 13/11 A3015 RMK A01 T01330113  RH  088%=      5-min Rain = 0
KWA1 100454Z 21006KT 13/11 A3015 RMK A01 T01330113  RH  088%=      5-min Rain = 0
KWA1 100455Z 21006KT 13/11 A3015 RMK A01 T01330113  RH  088%=      5-min Rain = 0
KWA1 100456Z 21005KT 13/11 A3015 RMK A01 T01330113  RH  088%=      5-min Rain = 0
KWA1 100457Z 21005KT 13/11 A3015 RMK A01 T01320112  RH  088%=      5-min Rain = 0
KWA1 100458Z 21005KT 13/11 A3015 RMK A01 T01320113  RH  088%=      5-min Rain = 0
KWA1 100459Z 21005KT 13/11 A3015 RMK A01 T01320112  RH  088%=      5-min Rain = 0
KWA1 100500Z 21005KT 13/11 A3015 RMK A01 T01310112  RH  088%=      5-min Rain = 0
KWA1 100501Z 21005KT 13/11 A3015 RMK A01 T01310112  RH  088%=      5-min Rain = 0
KWA1 100502Z 21005KT 13/11 A3015 RMK A01 T01300111  RH  088%=      5-min Rain = 0
KWA1 100503Z 21006KT 13/11 A3015 RMK A01 T01300112  RH  088%=      5-min Rain = 0
KWA1 100504Z 21005KT 13/11 A3015 RMK A01 T01300111  RH  089%=      5-min Rain = 0
KWA1 100505Z 21005KT 13/11 A3015 RMK A01 T01300111  RH  089%=      5-min Rain = 0
KWA1 100506Z 21005KT 13/11 A3015 RMK A01 T01300112  RH  089%=      5-min Rain = 0
KWA1 100507Z 21006KT 13/11 A3015 RMK A01 T01300111  RH  089%=      5-min Rain = 0
KWA1 100508Z 21006KT 13/11 A3015 RMK A01 T01290111  RH  089%=      5-min Rain = 0
KWA1 100509Z 21006KT 13/11 A3015 RMK A01 T01290111  RH  089%=      5-min Rain = 0
KWA1 100510Z 21006KT 13/11 A3015 RMK A01 T01290111  RH  089%=      5-min Rain = 0
KWA1 100511Z 21007KT 13/11 A3015 RMK A01 T01290111  RH  089%=      5-min Rain = 0
KWA1 100512Z 21006KT 13/11 A3015 RMK A01 T01300112  RH  089%=      5-min Rain = 0
KWA1 100513Z 21006KT 13/11 A3015 RMK A01 T01290111  RH  089%=      5-min Rain = 0
KWA1 100514Z 21006KT 13/11 A3015 RMK A01 T01300111  RH  089%=      5-min Rain = 0
KWA1 100515Z 21006KT 13/11 A3015 RMK A01 T01300111  RH  089%=      5-min Rain = 0
KWA1 100516Z 21006KT 13/11 A3015 RMK A01 T01300111  RH  089%=      5-min Rain = 0
KWA1 100517Z 21006KT 13/11 A3015 RMK A01 T01300112  RH  089%=      5-min Rain = 0
KWA1 100518Z 21006KT 13/11 A3015 RMK A01 T01310112  RH  088%=      5-min Rain = 0
KWA1 100519Z 21006KT 13/11 A3015 RMK A01 T01310112  RH  088%=      5-min Rain = 0
KWA1 100520Z 21007KT 13/11 A3015 RMK A01 T01310111  RH  088%=      5-min Rain = 0
KWA1 100521Z 21006KT 13/11 A3015 RMK A01 T01310112  RH  088%=      5-min Rain = 0
KWA1 100522Z 21006KT 13/11 A3015 RMK A01 T01310111  RH  088%=      5-min Rain = 0
KWA1 100523Z 21006KT 13/11 A3015 RMK A01 T01310112  RH  088%=      5-min Rain = 0
KWA1 100524Z 21007KT 13/11 A3015 RMK A01 T01310112  RH  088%=      5-min Rain = 0
KWA1 100525Z 21007KT 13/11 A3015 RMK A01 T01310112  RH  088%=      5-min Rain = 0
KWA1 100526Z 21007KT 13/11 A3015 RMK A01 T01320112  RH  088%=      5-min Rain = 0
KWA1 100527Z 21007KT 13/11 A3015 RMK A01 T01320112  RH  088%=      5-min Rain = 0
KWA1 100528Z 21006KT 13/11 A3015 RMK A01 T01330113  RH  088%=      5-min Rain = 0
KWA1 100529Z 21007KT 13/11 A3015 RMK A01 T01330112  RH  087%=      5-min Rain = 0
KWA1 100530Z 21007KT 13/11 A3015 RMK A01 T01330113  RH  087%=      5-min Rain = 0
KWA1 100531Z 21007KT 13/11 A3015 RMK A01 T01330112  RH  087%=      5-min Rain = 0
KWA1 100532Z 21006KT 13/11 A3015 RMK A01 T01330112  RH  087%=      5-min Rain = 0
KWA1 100533Z 21006KT 13/11 A3015 RMK A01 T01330112  RH  087%=      5-min Rain = 0
KWA1 100534Z 21006KT 13/11 A3015 RMK A01 T01320112  RH  087%=      5-min Rain = 0
KWA1 100535Z 21006KT 13/11 A3015 RMK A01 T01320112  RH  088%=      5-min Rain = 0
KWA1 100536Z 21006KT 13/11 A3015 RMK A01 T01320112  RH  088%=      5-min Rain = 0
KWA1 100537Z 21006KT 13/11 A3015 RMK A01 T01320112  RH  088%=      5-min Rain = 0
KWA1 100538Z 21006KT 13/11 A3015 RMK A01 T01310111  RH  088%=      5-min Rain = 0
KWA1 100539Z 21006KT 13/11 A3015 RMK A01 T01310111  RH  088%=      5-min Rain = 0
KWA1 100540Z 21006KT 13/11 A3015 RMK A01 T01300111  RH  088%=      5-min Rain = 0
KWA1 100541Z 21007KT 13/11 A3015 RMK A01 T01300112  RH  088%=      5-min Rain = 0
KWA1 100542Z 21006KT 13/11 A3015 RMK A01 T01300111  RH  088%=      5-min Rain = 0
KWA1 100543Z 21007KT 13/11 A3015 RMK A01 T01300111  RH  088%=      5-min Rain = 0
KWA1 100544Z 21006KT 13/11 A3015 RMK A01 T01300111  RH  088%=      5-min Rain = 0
KWA1 100545Z 21006KT 13/11 A3015 RMK A01 T01300111  RH  088%=      5-min Rain = 0
KWA1 100546Z 22006KT 13/11 A3015 RMK A01 T01300111  RH  088%=      5-min Rain = 0
KWA1 100547Z 22006KT 13/11 A3015 RMK A01 T01300111  RH  088%=      5-min Rain = 0
KWA1 100548Z 22006KT 13/11 A3015 RMK A01 T01290111  RH  089%=      5-min Rain = 0
KWA1 100549Z 22006KT 13/11 A3015 RMK A01 T01290111  RH  089%=      5-min Rain = 0
KWA1 100550Z 22006KT 13/11 A3014 RMK A01 T01290111  RH  089%=      5-min Rain = 0
KWA1 100551Z 21006KT 13/11 A3014 RMK A01 T01290111  RH  089%=      5-min Rain = 0
KWA1 100552Z 21006KT 13/11 A3014 RMK A01 T01290111  RH  089%=      5-min Rain = 0
KWA1 100553Z 21005KT 13/11 A3014 RMK A01 T01290111  RH  089%=      5-min Rain = 0
KWA1 100554Z 22006KT 13/11 A3014 RMK A01 T01290111  RH  089%=      5-min Rain = 0
KWA1 100555Z 22006KT 13/11 A3014 RMK A01 T01290111  RH  089%=      5-min Rain = 0
KWA1 100556Z 22006KT 13/11 A3014 RMK A01 T01290111  RH  089%=      5-min Rain = 0
KWA1 100557Z 22007KT 13/11 A3014 RMK A01 T01290111  RH  089%=      5-min Rain = 0
KWA1 100558Z 22006KT 13/11 A3014 RMK A01 T01300111  RH  088%=      5-min Rain = 0
KWA1 100559Z 21006KT 13/11 A3014 RMK A01 T01300111  RH  088%=      5-min Rain = 0

Page generated in 0.0938 seconds.